Wetterdaten: aktuell Sonntag, 01.08.2021 14:54
Datum Zeit Temp. A. Boden +5cm Boden -5cm Boden -10cm Boden -20cm Feuchte A. Blattfeuchte Bodenf. -5cm Bodenf.-10cm Bodenf.-20cm Bodenf.-50cm Luftdruck Regen Wind Richtung Richtung Sonnenschein ET UV Solar Taupunkt Windchill Windben
01.08.2021 14:54 17,7 C 24,4 C 18,3 C 17,8 C 16,7 C 76 % 0 lf 62 cb 200 cb 100 cb 51 cb 1010,2 hPa 0,0 l/m 7,5 km/h (2 Bft) W 274 0 min 0,000 mm 3,1 UV-I 329 W/m 13,4 C 17,2 C 16,1 km/h (3 Bft)
01.08.2021 14:52 17,7 C 24,4 C 18,3 C 17,8 C 16,7 C 77 % 0 lf 62 cb 200 cb 99 cb 51 cb 1010,2 hPa 0,0 l/m 7,2 km/h (2 Bft) W 269 0 min 0,000 mm 2,9 UV-I 325 W/m 13,6 C 17,3 C 16,1 km/h (3 Bft)
01.08.2021 14:50 17,7 C 25,6 C 18,3 C 17,8 C 16,7 C 81 % 0 lf 64 cb 200 cb 99 cb 51 cb 1010,2 hPa 0,0 l/m 4,0 km/h (1 Bft) W 264 0 min 0,000 mm 2,9 UV-I 432 W/m 14,4 C 17,7 C 17,7 km/h (3 Bft)
01.08.2021 14:48 17,6 C 25,0 C 18,3 C 17,8 C 16,7 C 79 % 0 lf 63 cb 200 cb 99 cb 51 cb 1010,2 hPa 0,0 l/m 2,1 km/h (1 Bft) W 259 0 min 0,000 mm 4,4 UV-I 432 W/m 13,9 C 17,6 C 9,7 km/h (2 Bft)
01.08.2021 14:46 17,5 C 23,9 C 18,3 C 17,8 C 16,7 C 78 % 0 lf 62 cb 200 cb 99 cb 51 cb 1010,2 hPa 0,0 l/m 4,2 km/h (1 Bft) W-SW 243 0 min 0,000 mm 1,8 UV-I 220 W/m 13,6 C 17,5 C 9,7 km/h (2 Bft)
01.08.2021 14:44 17,5 C 25,0 C 18,3 C 17,8 C 16,7 C 77 % 0 lf 63 cb 200 cb 99 cb 51 cb 1010,2 hPa 0,0 l/m 5,0 km/h (1 Bft) SW 233 0 min 0,000 mm 1,9 UV-I 225 W/m 13,4 C 17,5 C 16,1 km/h (3 Bft)
01.08.2021 14:42 17,5 C 25,6 C 18,3 C 17,8 C 16,7 C 77 % 0 lf 64 cb 200 cb 99 cb 51 cb 1010,2 hPa 0,0 l/m 5,8 km/h (2 Bft) SW 227 0 min 0,000 mm 2,5 UV-I 287 W/m 13,4 C 17,5 C 19,3 km/h (3 Bft)
01.08.2021 14:40 17,6 C 26,1 C 18,3 C 17,8 C 16,7 C 77 % 0 lf 64 cb 200 cb 99 cb 51 cb 1010,3 hPa 0,0 l/m 4,5 km/h (1 Bft) W 269 0 min 0,000 mm 2,7 UV-I 304 W/m 13,5 C 17,6 C 14,5 km/h (3 Bft)
01.08.2021 14:38 17,6 C 27,2 C 18,3 C 17,8 C 16,7 C 80 % 0 lf 65 cb 200 cb 99 cb 51 cb 1010,3 hPa 0,0 l/m 8,6 km/h (2 Bft) W-NW 286 2 min 0,000 mm 1,9 UV-I 691 W/m 14,1 C 16,6 C 16,1 km/h (3 Bft)
01.08.2021 14:36 17,4 C 26,7 C 18,3 C 17,8 C 16,7 C 79 % 0 lf 65 cb 200 cb 99 cb 51 cb 1010,3 hPa 0,0 l/m 4,2 km/h (1 Bft) W-SW 244 2 min 0,000 mm 4,2 UV-I 691 W/m 13,7 C 17,4 C 16,1 km/h (3 Bft)
01.08.2021 14:34 17,3 C 25,6 C 18,3 C 17,8 C 16,7 C 80 % 0 lf 64 cb 200 cb 99 cb 51 cb 1010,3 hPa 0,0 l/m 5,7 km/h (1 Bft) W-SW 256 0 min 0,000 mm 4,1 UV-I 387 W/m 13,8 C 17,3 C 11,3 km/h (2 Bft)
01.08.2021 14:32 17,3 C 25,0 C 18,3 C 17,8 C 16,7 C 77 % 0 lf 63 cb 200 cb 99 cb 51 cb 1010,4 hPa 0,0 l/m 10,8 km/h (2 Bft) W 272 0 min 0,000 mm 3,9 UV-I 387 W/m 13,2 C 15,4 C 17,7 km/h (3 Bft)
01.08.2021 14:30 17,3 C 24,4 C 18,3 C 17,8 C 16,7 C 79 % 0 lf 62 cb 200 cb 99 cb 51 cb 1010,4 hPa 0,0 l/m 9,6 km/h (2 Bft) W 259 0 min 0,000 mm 4,0 UV-I 315 W/m 13,6 C 15,8 C 17,7 km/h (3 Bft)
01.08.2021 14:28 17,3 C 24,4 C 18,3 C 17,8 C 16,7 C 80 % 0 lf 62 cb 200 cb 99 cb 51 cb 1010,4 hPa 0,0 l/m 6,9 km/h (2 Bft) W 265 0 min 0,000 mm 3,3 UV-I 315 W/m 13,8 C 17,1 C 19,3 km/h (3 Bft)
01.08.2021 14:26 17,2 C 23,3 C 18,3 C 17,8 C 16,7 C 79 % 0 lf 61 cb 200 cb 99 cb 51 cb 1010,3 hPa 0,0 l/m 4,4 km/h (1 Bft) SW 231 0 min 0,000 mm 4,4 UV-I 315 W/m 13,5 C 17,2 C 11,3 km/h (2 Bft)
01.08.2021 14:24 17,2 C 22,2 C 18,3 C 17,8 C 16,7 C 79 % 0 lf 60 cb 200 cb 99 cb 51 cb 1010,4 hPa 0,0 l/m 6,4 km/h (2 Bft) W 269 0 min 0,000 mm 2,7 UV-I 315 W/m 13,5 C 17,2 C 14,5 km/h (3 Bft)
01.08.2021 14:22 17,2 C 22,8 C 18,3 C 17,8 C 16,7 C 78 % 0 lf 60 cb 200 cb 99 cb 51 cb 1010,3 hPa 0,0 l/m 5,4 km/h (1 Bft) W 279 0 min 0,000 mm 3,1 UV-I 353 W/m 13,3 C 17,2 C 11,3 km/h (2 Bft)
01.08.2021 14:20 17,2 C 23,3 C 17,8 C 17,8 C 16,7 C 79 % 0 lf 61 cb 200 cb 99 cb 51 cb 1010,4 hPa 0,0 l/m 10,8 km/h (2 Bft) W-NW 294 0 min 0,000 mm 2,6 UV-I 251 W/m 13,5 C 15,2 C 24,1 km/h (4 Bft)
01.08.2021 14:18 17,1 C 23,9 C 17,8 C 17,8 C 16,7 C 80 % 0 lf 61 cb 200 cb 99 cb 51 cb 1010,3 hPa 0,0 l/m 3,1 km/h (1 Bft) W 274 0 min 0,000 mm 4,1 UV-I 401 W/m 13,6 C 17,1 C 11,3 km/h (2 Bft)
01.08.2021 14:16 17,1 C 23,9 C 17,8 C 17,8 C 16,7 C 80 % 0 lf 61 cb 200 cb 99 cb 51 cb 1010,3 hPa 0,0 l/m 5,5 km/h (1 Bft) W-NW 287 0 min 0,000 mm 3,3 UV-I 348 W/m 13,6 C 17,1 C 16,1 km/h (3 Bft)
01.08.2021 14:14 17,1 C 23,3 C 17,8 C 17,8 C 16,7 C 81 % 0 lf 61 cb 200 cb 99 cb 51 cb 1010,4 hPa 0,0 l/m 4,7 km/h (1 Bft) W-SW 248 0 min 0,000 mm 4,9 UV-I 418 W/m 13,8 C 17,1 C 14,5 km/h (3 Bft)
01.08.2021 14:12 17,0 C 22,2 C 17,8 C 17,2 C 16,7 C 80 % 0 lf 60 cb 200 cb 98 cb 51 cb 1010,4 hPa 0,0 l/m 2,4 km/h (1 Bft) W 259 0 min 0,000 mm 6,7 UV-I 418 W/m 13,5 C 17,0 C 11,3 km/h (2 Bft)
01.08.2021 14:10 17,1 C 22,8 C 17,8 C 17,2 C 16,7 C 79 % 0 lf 60 cb 200 cb 98 cb 51 cb 1010,3 hPa 0,0 l/m 6,4 km/h (2 Bft) W-SW 238 0 min 0,000 mm 3,4 UV-I 418 W/m 13,4 C 17,1 C 19,3 km/h (3 Bft)
01.08.2021 14:08 17,1 C 23,3 C 17,8 C 17,2 C 16,7 C 79 % 0 lf 61 cb 200 cb 98 cb 51 cb 1010,4 hPa 0,0 l/m 1,8 km/h (1 Bft) W 269 0 min 0,000 mm 3,3 UV-I 431 W/m 13,4 C 17,1 C 8,0 km/h (2 Bft)
01.08.2021 14:06 17,1 C 21,7 C 17,8 C 17,2 C 16,7 C 79 % 0 lf 60 cb 200 cb 98 cb 51 cb 1010,3 hPa 0,0 l/m 7,5 km/h (2 Bft) W 267 0 min 0,000 mm 2,8 UV-I 329 W/m 13,4 C 16,5 C 17,7 km/h (3 Bft)
01.08.2021 14:04 17,2 C 21,7 C 17,8 C 17,2 C 16,7 C 80 % 0 lf 59 cb 200 cb 98 cb 51 cb 1010,3 hPa 0,0 l/m 4,7 km/h (1 Bft) W 271 0 min 0,000 mm 2,8 UV-I 301 W/m 13,7 C 17,2 C 16,1 km/h (3 Bft)
01.08.2021 14:02 17,2 C 21,7 C 17,8 C 17,2 C 16,7 C 80 % 0 lf 59 cb 200 cb 98 cb 51 cb 1010,3 hPa 0,0 l/m 3,7 km/h (1 Bft) W-SW 257 0 min 0,000 mm 2,6 UV-I 302 W/m 13,7 C 17,2 C 8,0 km/h (2 Bft)
01.08.2021 14:00 17,3 C 22,8 C 17,8 C 17,2 C 16,7 C 79 % 1 lf 60 cb 200 cb 98 cb 51 cb 1010,4 hPa 0,0 l/m 5,1 km/h (1 Bft) W-SW 248 0 min 0,229 mm 1,9 UV-I 225 W/m 13,6 C 17,3 C 14,5 km/h (3 Bft)
01.08.2021 13:58 17,3 C 22,8 C 17,8 C 17,2 C 16,7 C 80 % 0 lf 60 cb 200 cb 97 cb 51 cb 1010,4 hPa 0,0 l/m 2,3 km/h (1 Bft) W 261 0 min 0,000 mm 3,0 UV-I 327 W/m 13,8 C 17,3 C 16,1 km/h (3 Bft)
01.08.2021 13:56 17,3 C 23,9 C 17,8 C 17,2 C 16,7 C 81 % 0 lf 61 cb 200 cb 97 cb 51 cb 1010,4 hPa 0,0 l/m 2,3 km/h (1 Bft) W 267 0 min 0,000 mm 2,2 UV-I 241 W/m 14,0 C 17,3 C 9,7 km/h (2 Bft)
01.08.2021 13:54 17,3 C 25,0 C 17,8 C 17,2 C 16,7 C 81 % 0 lf 62 cb 200 cb 97 cb 51 cb 1010,4 hPa 0,0 l/m 3,9 km/h (1 Bft) W-SW 252 0 min 0,000 mm 2,2 UV-I 229 W/m 14,0 C 17,3 C 9,7 km/h (2 Bft)
01.08.2021 13:52 17,2 C 26,1 C 17,8 C 17,2 C 16,7 C 81 % 0 lf 62 cb 200 cb 97 cb 51 cb 1010,4 hPa 0,0 l/m 3,0 km/h (1 Bft) W-SW 251 0 min 0,000 mm 2,5 UV-I 274 W/m 13,9 C 17,2 C 9,7 km/h (2 Bft)
01.08.2021 13:50 17,1 C 26,7 C 17,8 C 17,2 C 16,7 C 81 % 0 lf 63 cb 200 cb 97 cb 51 cb 1010,4 hPa 0,0 l/m 2,5 km/h (1 Bft) W-SW 247 2 min 0,000 mm 6,2 UV-I 1018 W/m 13,8 C 17,1 C 9,7 km/h (2 Bft)
01.08.2021 13:48 16,9 C 25,6 C 17,8 C 17,2 C 16,1 C 81 % 0 lf 63 cb 200 cb 97 cb 51 cb 1010,4 hPa 0,0 l/m 2,6 km/h (1 Bft) W-SW 247 2 min 0,000 mm 6,3 UV-I 1018 W/m 13,6 C 16,9 C 8,0 km/h (2 Bft)
01.08.2021 13:46 16,8 C 24,4 C 17,8 C 17,2 C 16,1 C 81 % 0 lf 62 cb 200 cb 97 cb 51 cb 1010,4 hPa 0,0 l/m 4,2 km/h (1 Bft) W-SW 248 0 min 0,000 mm 6,3 UV-I 287 W/m 13,5 C 16,8 C 16,1 km/h (3 Bft)
01.08.2021 13:44 16,8 C 23,9 C 17,2 C 17,2 C 16,1 C 81 % 0 lf 61 cb 200 cb 97 cb 51 cb 1010,4 hPa 0,0 l/m 6,3 km/h (2 Bft) W 259 0 min 0,000 mm 2,9 UV-I 302 W/m 13,5 C 16,8 C 17,7 km/h (3 Bft)
01.08.2021 13:42 16,7 C 23,3 C 17,2 C 17,2 C 16,1 C 83 % 0 lf 61 cb 200 cb 97 cb 51 cb 1010,4 hPa 0,0 l/m 3,4 km/h (1 Bft) W 275 0 min 0,000 mm 6,0 UV-I 339 W/m 13,8 C 16,7 C 11,3 km/h (2 Bft)
01.08.2021 13:40 16,6 C 23,3 C 17,2 C 17,2 C 16,1 C 84 % 0 lf 61 cb 200 cb 98 cb 51 cb 1010,4 hPa 0,0 l/m 5,8 km/h (2 Bft) W-SW 237 2 min 0,000 mm 6,5 UV-I 1134 W/m 13,9 C 16,6 C 11,3 km/h (2 Bft)
01.08.2021 13:38 16,5 C 21,1 C 17,2 C 17,2 C 16,1 C 82 % 0 lf 59 cb 200 cb 98 cb 51 cb 1010,4 hPa 0,0 l/m 3,1 km/h (1 Bft) W-SW 241 0 min 0,000 mm 6,6 UV-I 294 W/m 13,4 C 16,5 C 8,0 km/h (2 Bft)
01.08.2021 13:36 16,5 C 21,1 C 17,2 C 17,2 C 16,1 C 83 % 0 lf 59 cb 200 cb 97 cb 51 cb 1010,4 hPa 0,0 l/m 5,4 km/h (1 Bft) W-SW 245 0 min 0,000 mm 2,5 UV-I 267 W/m 13,6 C 16,5 C 17,7 km/h (3 Bft)
01.08.2021 13:34 16,4 C 21,1 C 17,2 C 17,2 C 16,1 C 83 % 0 lf 59 cb 200 cb 97 cb 51 cb 1010,4 hPa 0,0 l/m 1,8 km/h (1 Bft) W 263 0 min 0,000 mm 2,4 UV-I 269 W/m 13,5 C 16,4 C 8,0 km/h (2 Bft)
01.08.2021 13:32 16,4 C 22,2 C 17,2 C 17,2 C 16,1 C 84 % 0 lf 60 cb 200 cb 97 cb 51 cb 1010,4 hPa 0,0 l/m 1,7 km/h (1 Bft) W 265 0 min 0,000 mm 2,5 UV-I 290 W/m 13,7 C 16,4 C 8,0 km/h (2 Bft)
01.08.2021 13:30 16,4 C 22,8 C 17,2 C 17,2 C 16,1 C 83 % 0 lf 60 cb 200 cb 97 cb 51 cb 1010,4 hPa 0,0 l/m 2,7 km/h (1 Bft) W-SW 257 0 min 0,000 mm 3,9 UV-I 432 W/m 13,5 C 16,4 C 11,3 km/h (2 Bft)
01.08.2021 13:28 16,4 C 22,2 C 17,2 C 17,2 C 16,1 C 83 % 0 lf 60 cb 200 cb 97 cb 51 cb 1010,4 hPa 0,0 l/m 1,9 km/h (1 Bft) W-SW 244 0 min 0,000 mm 6,0 UV-I 432 W/m 13,5 C 16,4 C 8,0 km/h (2 Bft)
01.08.2021 13:26 16,3 C 22,2 C 17,2 C 17,2 C 16,1 C 83 % 0 lf 60 cb 200 cb 97 cb 51 cb 1010,4 hPa 0,0 l/m 0,1 km/h (0 Bft) W-SW 246 0 min 0,000 mm 4,4 UV-I 432 W/m 13,4 C 16,3 C 1,6 km/h (1 Bft)
01.08.2021 13:24 16,2 C 22,8 C 17,2 C 16,7 C 16,1 C 83 % 0 lf 60 cb 200 cb 96 cb 51 cb 1010,4 hPa 0,0 l/m 2,4 km/h (1 Bft) W-SW 246 0 min 0,000 mm 3,2 UV-I 373 W/m 13,3 C 16,2 C 9,7 km/h (2 Bft)
01.08.2021 13:22 16,2 C 22,8 C 17,2 C 16,7 C 16,1 C 83 % 0 lf 60 cb 200 cb 96 cb 51 cb 1010,4 hPa 0,0 l/m 3,3 km/h (1 Bft) SW 228 2 min 0,000 mm 3,0 UV-I 615 W/m 13,3 C 16,2 C 9,7 km/h (2 Bft)
01.08.2021 13:20 16,1 C 21,7 C 17,2 C 16,7 C 16,1 C 83 % 0 lf 60 cb 200 cb 97 cb 51 cb 1010,5 hPa 0,0 l/m 4,4 km/h (1 Bft) S-SW 204 2 min 0,000 mm 3,9 UV-I 703 W/m 13,2 C 16,1 C 11,3 km/h (2 Bft)
01.08.2021 13:18 16,1 C 20,6 C 17,2 C 16,7 C 16,1 C 81 % 0 lf 58 cb 200 cb 97 cb 51 cb 1010,5 hPa 0,0 l/m 5,6 km/h (1 Bft) W 263 0 min 0,000 mm 2,7 UV-I 334 W/m 12,8 C 16,1 C 12,9 km/h (3 Bft)
01.08.2021 13:16 16,1 C 20,6 C 17,2 C 16,7 C 16,1 C 82 % 0 lf 58 cb 200 cb 97 cb 51 cb 1010,5 hPa 0,0 l/m 6,4 km/h (2 Bft) W-SW 247 0 min 0,000 mm 2,2 UV-I 274 W/m 13,0 C 16,1 C 19,3 km/h (3 Bft)
01.08.2021 13:14 16,2 C 21,1 C 17,2 C 16,7 C 16,1 C 82 % 0 lf 59 cb 200 cb 97 cb 51 cb 1010,5 hPa 0,0 l/m 5,2 km/h (1 Bft) W 269 0 min 0,000 mm 2,0 UV-I 260 W/m 13,1 C 16,2 C 14,5 km/h (3 Bft)
01.08.2021 13:12 16,2 C 21,1 C 16,7 C 16,7 C 16,1 C 82 % 0 lf 59 cb 200 cb 97 cb 51 cb 1010,5 hPa 0,0 l/m 6,5 km/h (2 Bft) W-SW 252 0 min 0,000 mm 2,5 UV-I 294 W/m 13,1 C 16,2 C 20,9 km/h (4 Bft)
01.08.2021 13:10 16,2 C 21,1 C 16,7 C 16,7 C 16,1 C 82 % 0 lf 59 cb 200 cb 97 cb 51 cb 1010,5 hPa 0,0 l/m 2,9 km/h (1 Bft) W-SW 254 0 min 0,000 mm 2,6 UV-I 373 W/m 13,1 C 16,2 C 8,0 km/h (2 Bft)
01.08.2021 13:08 16,2 C 21,1 C 16,7 C 16,7 C 16,1 C 82 % 0 lf 59 cb 200 cb 96 cb 51 cb 1010,5 hPa 0,0 l/m 6,0 km/h (2 Bft) W-SW 237 0 min 0,000 mm 1,9 UV-I 274 W/m 13,1 C 16,2 C 14,5 km/h (3 Bft)
01.08.2021 13:06 16,2 C 21,7 C 16,7 C 16,7 C 16,1 C 83 % 0 lf 59 cb 200 cb 96 cb 51 cb 1010,5 hPa 0,0 l/m 7,3 km/h (2 Bft) SW 230 0 min 0,000 mm 1,8 UV-I 236 W/m 13,3 C 15,7 C 16,1 km/h (3 Bft)
01.08.2021 13:04 16,2 C 21,7 C 16,7 C 16,7 C 16,1 C 83 % 0 lf 59 cb 200 cb 96 cb 51 cb 1010,5 hPa 0,0 l/m 3,0 km/h (1 Bft) W 267 0 min 0,000 mm 2,0 UV-I 251 W/m 13,3 C 16,2 C 8,0 km/h (2 Bft)
01.08.2021 13:02 16,2 C 22,2 C 16,7 C 16,7 C 16,1 C 83 % 0 lf 60 cb 200 cb 96 cb 51 cb 1010,5 hPa 0,0 l/m 1,8 km/h (1 Bft) W-SW 252 0 min 0,000 mm 2,4 UV-I 297 W/m 13,3 C 16,2 C 8,0 km/h (2 Bft)
01.08.2021 13:00 16,1 C 22,2 C 16,7 C 16,7 C 16,1 C 83 % 0 lf 60 cb 200 cb 96 cb 51 cb 1010,5 hPa 0,0 l/m 5,9 km/h (2 Bft) W-SW 257 0 min 0,178 mm 2,4 UV-I 288 W/m 13,2 C 16,1 C 16,1 km/h (3 Bft)
01.08.2021 12:58 16,1 C 23,3 C 16,7 C 16,7 C 16,1 C 85 % 0 lf 61 cb 200 cb 96 cb 51 cb 1010,5 hPa 0,0 l/m 4,5 km/h (1 Bft) SW 233 0 min 0,000 mm 2,3 UV-I 281 W/m 13,6 C 16,1 C 16,1 km/h (3 Bft)
01.08.2021 12:56 15,9 C 23,3 C 16,7 C 16,7 C 16,1 C 84 % 0 lf 61 cb 200 cb 96 cb 51 cb 1010,5 hPa 0,0 l/m 1,7 km/h (1 Bft) W-SW 247 0 min 0,000 mm 5,6 UV-I 443 W/m 13,2 C 15,9 C 14,5 km/h (3 Bft)
01.08.2021 12:54 15,8 C 21,7 C 16,7 C 16,7 C 16,1 C 84 % 0 lf 59 cb 200 cb 96 cb 51 cb 1010,5 hPa 0,0 l/m 4,3 km/h (1 Bft) SW 225 0 min 0,000 mm 5,9 UV-I 237 W/m 13,1 C 15,8 C 17,7 km/h (3 Bft)
01.08.2021 12:52 15,7 C 21,7 C 16,7 C 16,7 C 16,1 C 84 % 0 lf 59 cb 200 cb 96 cb 51 cb 1010,5 hPa 0,0 l/m 1,6 km/h (1 Bft) W-NW 289 0 min 0,000 mm 2,7 UV-I 237 W/m 13,0 C 15,7 C 9,7 km/h (2 Bft)
01.08.2021 12:50 15,6 C 21,7 C 16,7 C 16,7 C 16,1 C 84 % 0 lf 60 cb 200 cb 96 cb 51 cb 1010,6 hPa 0,0 l/m 8,7 km/h (2 Bft) SW 236 0 min 0,000 mm 3,1 UV-I 332 W/m 12,9 C 14,4 C 17,7 km/h (3 Bft)
01.08.2021 12:49 15,6 C 21,7 C 16,7 C 16,7 C 16,1 C 84 % 0 lf 60 cb 200 cb 96 cb 51 cb 1010,6 hPa 0,0 l/m 8,0 km/h (2 Bft) W-SW 240 0 min 0,000 mm 3,6 UV-I 332 W/m 12,9 C 14,7 C 16,1 km/h (3 Bft)
01.08.2021 12:48 15,6 C 21,1 C 16,7 C 16,7 C 16,1 C 84 % 0 lf 59 cb 200 cb 97 cb 51 cb 1010,5 hPa 0,0 l/m 6,1 km/h (2 Bft) SW 234 0 min 0,000 mm 5,5 UV-I 332 W/m 12,9 C 15,6 C 17,7 km/h (3 Bft)
01.08.2021 12:46 15,6 C 20,6 C 16,7 C 16,7 C 16,1 C 86 % 0 lf 59 cb 200 cb 97 cb 51 cb 1010,6 hPa 0,0 l/m 5,0 km/h (1 Bft) S-SO 157 0 min 0,000 mm 3,2 UV-I 332 W/m 13,3 C 15,6 C 14,5 km/h (3 Bft)
01.08.2021 12:44 15,6 C 19,4 C 16,7 C 16,7 C 16,1 C 86 % 0 lf 58 cb 200 cb 97 cb 51 cb 1010,6 hPa 0,0 l/m 5,2 km/h (1 Bft) W-SW 246 2 min 0,000 mm 5,8 UV-I 501 W/m 13,3 C 15,6 C 16,1 km/h (3 Bft)
01.08.2021 12:42 15,5 C 18,9 C 16,7 C 16,7 C 16,1 C 85 % 0 lf 57 cb 200 cb 97 cb 51 cb 1010,6 hPa 0,0 l/m 2,7 km/h (1 Bft) SW 225 2 min 0,000 mm 3,8 UV-I 508 W/m 13,0 C 15,5 C 11,3 km/h (2 Bft)
01.08.2021 12:40 15,4 C 18,9 C 16,7 C 16,7 C 16,1 C 86 % 0 lf 57 cb 200 cb 97 cb 51 cb 1010,6 hPa 0,0 l/m 6,4 km/h (2 Bft) SW 233 0 min 0,000 mm 3,3 UV-I 287 W/m 13,1 C 15,4 C 16,1 km/h (3 Bft)
01.08.2021 12:38 15,4 C 18,3 C 16,1 C 16,7 C 16,1 C 86 % 0 lf 57 cb 200 cb 97 cb 51 cb 1010,7 hPa 0,0 l/m 3,2 km/h (1 Bft) W-SW 242 0 min 0,000 mm 2,3 UV-I 290 W/m 13,1 C 15,4 C 9,7 km/h (2 Bft)
01.08.2021 12:36 15,3 C 18,3 C 16,1 C 16,1 C 16,1 C 86 % 0 lf 57 cb 200 cb 96 cb 51 cb 1010,6 hPa 0,0 l/m 1,2 km/h (1 Bft) W-SW 242 0 min 0,000 mm 2,0 UV-I 264 W/m 13,0 C 15,3 C 8,0 km/h (2 Bft)
01.08.2021 12:34 15,3 C 18,3 C 16,1 C 16,1 C 16,1 C 86 % 0 lf 57 cb 200 cb 96 cb 51 cb 1010,7 hPa 0,0 l/m 0,4 km/h (0 Bft) W-SW 242 0 min 0,000 mm 1,9 UV-I 251 W/m 13,0 C 15,3 C 4,8 km/h (1 Bft)
01.08.2021 12:32 15,3 C 18,3 C 16,1 C 16,1 C 16,1 C 86 % 0 lf 57 cb 200 cb 96 cb 51 cb 1010,7 hPa 0,0 l/m 6,6 km/h (2 Bft) W-SW 242 0 min 0,000 mm 1,8 UV-I 234 W/m 13,0 C 15,2 C 14,5 km/h (3 Bft)
01.08.2021 12:30 15,3 C 17,8 C 16,1 C 16,1 C 16,1 C 86 % 0 lf 57 cb 200 cb 96 cb 51 cb 1010,6 hPa 0,0 l/m 2,2 km/h (1 Bft) W 269 0 min 0,000 mm 2,0 UV-I 244 W/m 13,0 C 15,3 C 9,7 km/h (2 Bft)
01.08.2021 12:28 15,3 C 17,8 C 16,1 C 16,1 C 16,1 C 86 % 0 lf 57 cb 200 cb 96 cb 51 cb 1010,7 hPa 0,0 l/m 2,8 km/h (1 Bft) W-SW 257 0 min 0,000 mm 1,2 UV-I 174 W/m 13,0 C 15,3 C 8,0 km/h (2 Bft)
01.08.2021 12:26 15,2 C 18,3 C 16,1 C 16,1 C 16,1 C 87 % 0 lf 57 cb 200 cb 96 cb 51 cb 1010,6 hPa 0,0 l/m 0,9 km/h (0 Bft) W 260 0 min 0,000 mm 1,4 UV-I 200 W/m 13,0 C 15,2 C 6,4 km/h (2 Bft)
01.08.2021 12:24 15,2 C 18,3 C 16,1 C 16,1 C 16,1 C 86 % 0 lf 57 cb 200 cb 96 cb 51 cb 1010,7 hPa 0,0 l/m 3,1 km/h (1 Bft) W-SW 254 0 min 0,000 mm 2,0 UV-I 272 W/m 12,9 C 15,2 C 9,7 km/h (2 Bft)
01.08.2021 12:22 15,1 C 18,3 C 16,1 C 16,1 C 16,1 C 86 % 0 lf 57 cb 200 cb 96 cb 51 cb 1010,6 hPa 0,0 l/m 2,5 km/h (1 Bft) W-SW 254 0 min 0,000 mm 1,4 UV-I 207 W/m 12,8 C 15,1 C 8,0 km/h (2 Bft)
01.08.2021 12:20 15,0 C 18,3 C 16,1 C 16,1 C 16,1 C 86 % 0 lf 57 cb 200 cb 96 cb 51 cb 1010,6 hPa 0,0 l/m 3,1 km/h (1 Bft) W-SW 254 0 min 0,000 mm 2,0 UV-I 272 W/m 12,7 C 15,0 C 8,0 km/h (2 Bft)
01.08.2021 12:18 15,0 C 18,3 C 16,1 C 16,1 C 16,1 C 87 % 0 lf 57 cb 200 cb 96 cb 51 cb 1010,6 hPa 0,0 l/m 1,4 km/h (1 Bft) W 262 0 min 0,000 mm 1,8 UV-I 264 W/m 12,9 C 15,0 C 8,0 km/h (2 Bft)
01.08.2021 12:16 15,0 C 18,3 C 16,1 C 16,1 C 16,1 C 86 % 0 lf 57 cb 200 cb 96 cb 51 cb 1010,6 hPa 0,0 l/m 1,1 km/h (1 Bft) W 272 0 min 0,000 mm 1,6 UV-I 218 W/m 12,7 C 15,0 C 9,7 km/h (2 Bft)
01.08.2021 12:14 15,0 C 18,9 C 16,1 C 16,1 C 16,1 C 86 % 0 lf 57 cb 200 cb 96 cb 51 cb 1010,6 hPa 0,0 l/m 0,2 km/h (0 Bft) W 274 0 min 0,000 mm 1,7 UV-I 232 W/m 12,7 C 15,0 C 4,8 km/h (1 Bft)
01.08.2021 12:12 15,0 C 18,9 C 16,1 C 16,1 C 16,1 C 86 % 0 lf 57 cb 200 cb 96 cb 51 cb 1010,6 hPa 0,0 l/m 6,5 km/h (2 Bft) W 274 0 min 0,000 mm 1,6 UV-I 223 W/m 12,7 C 15,0 C 12,9 km/h (3 Bft)
01.08.2021 12:10 15,0 C 18,9 C 16,1 C 16,1 C 16,1 C 87 % 0 lf 57 cb 200 cb 96 cb 50 cb 1010,6 hPa 0,0 l/m 3,5 km/h (1 Bft) W 263 0 min 0,000 mm 1,8 UV-I 251 W/m 12,9 C 15,0 C 11,3 km/h (2 Bft)
01.08.2021 12:09 15,0 C 18,9 C 16,1 C 16,1 C 16,1 C 87 % 0 lf 57 cb 200 cb 96 cb 50 cb 1010,6 hPa 0,0 l/m 4,1 km/h (1 Bft) W 262 0 min 0,000 mm 1,9 UV-I 262 W/m 12,9 C 15,0 C 9,7 km/h (2 Bft)
01.08.2021 12:08 15,0 C 18,9 C 16,1 C 16,1 C 16,1 C 87 % 0 lf 57 cb 200 cb 96 cb 50 cb 1010,6 hPa 0,0 l/m 0,7 km/h (0 Bft) W 267 0 min 0,000 mm 2,1 UV-I 264 W/m 12,9 C 15,0 C 4,8 km/h (1 Bft)
01.08.2021 12:06 14,9 C 18,3 C 16,1 C 16,1 C 16,1 C 86 % 0 lf 57 cb 200 cb 96 cb 50 cb 1010,6 hPa 0,0 l/m 2,7 km/h (1 Bft) W 267 0 min 0,000 mm 2,2 UV-I 294 W/m 12,6 C 14,9 C 9,7 km/h (2 Bft)
01.08.2021 12:04 14,8 C 18,3 C 16,1 C 16,1 C 16,1 C 87 % 0 lf 57 cb 200 cb 96 cb 50 cb 1010,6 hPa 0,0 l/m 1,7 km/h (1 Bft) W 268 0 min 0,000 mm 2,1 UV-I 295 W/m 12,7 C 14,8 C 8,0 km/h (2 Bft)
01.08.2021 12:02 14,8 C 17,8 C 16,1 C 16,1 C 16,1 C 85 % 0 lf 57 cb 200 cb 96 cb 50 cb 1010,6 hPa 0,0 l/m 2,0 km/h (1 Bft) W 269 0 min 0,000 mm 1,9 UV-I 265 W/m 12,3 C 14,8 C 9,7 km/h (2 Bft)
01.08.2021 12:00 14,8 C 17,8 C 16,1 C 16,1 C 16,1 C 85 % 0 lf 57 cb 200 cb 96 cb 50 cb 1010,6 hPa 0,0 l/m 3,5 km/h (1 Bft) W 265 0 min 0,152 mm 1,2 UV-I 202 W/m 12,3 C 14,8 C 9,7 km/h (2 Bft)
01.08.2021 11:58 14,7 C 18,3 C 16,1 C 16,1 C 16,1 C 85 % 0 lf 57 cb 200 cb 96 cb 50 cb 1010,6 hPa 0,0 l/m 2,7 km/h (1 Bft) W 265 0 min 0,000 mm 1,1 UV-I 163 W/m 12,2 C 14,7 C 9,7 km/h (2 Bft)
01.08.2021 11:56 14,8 C 18,3 C 16,1 C 16,1 C 16,1 C 85 % 0 lf 57 cb 200 cb 96 cb 50 cb 1010,6 hPa 0,0 l/m 1,9 km/h (1 Bft) W 263 0 min 0,000 mm 1,2 UV-I 185 W/m 12,3 C 14,8 C 9,7 km/h (2 Bft)
01.08.2021 11:54 14,8 C 18,3 C 16,1 C 16,1 C 16,1 C 85 % 0 lf 57 cb 200 cb 96 cb 50 cb 1010,7 hPa 0,0 l/m 4,1 km/h (1 Bft) W 266 0 min 0,000 mm 1,3 UV-I 193 W/m 12,3 C 14,8 C 9,7 km/h (2 Bft)
01.08.2021 11:52 14,8 C 18,3 C 16,1 C 16,1 C 15,6 C 86 % 0 lf 57 cb 200 cb 96 cb 50 cb 1010,6 hPa 0,0 l/m 1,5 km/h (1 Bft) W-SW 244 0 min 0,000 mm 1,6 UV-I 218 W/m 12,5 C 14,8 C 6,4 km/h (2 Bft)
01.08.2021 11:50 14,7 C 18,3 C 16,1 C 16,1 C 15,6 C 85 % 0 lf 57 cb 200 cb 96 cb 50 cb 1010,7 hPa 0,0 l/m 0,0 km/h (0 Bft) W-SW 239 0 min 0,000 mm 1,6 UV-I 225 W/m 12,2 C 14,7 C 0,0 km/h (0 Bft)
01.08.2021 11:49 14,7 C 18,3 C 16,1 C 16,1 C 15,6 C 85 % 0 lf 57 cb 200 cb 96 cb 50 cb 1010,7 hPa 0,0 l/m 2,3 km/h (1 Bft) W-SW 239 0 min 0,000 mm 1,5 UV-I 223 W/m 12,2 C 14,7 C 6,4 km/h (2 Bft)
01.08.2021 11:48 14,7 C 17,8 C 16,1 C 16,1 C 15,6 C 85 % 0 lf 57 cb 200 cb 96 cb 50 cb 1010,7 hPa 0,0 l/m 6,8 km/h (2 Bft) W-SW 238 0 min 0,000 mm 1,8 UV-I 288 W/m 12,2 C 14,5 C 16,1 km/h (3 Bft)
01.08.2021 11:46 14,7 C 17,8 C 16,1 C 16,1 C 15,6 C 85 % 0 lf 57 cb 200 cb 96 cb 50 cb 1010,6 hPa 0,0 l/m 8,4 km/h (2 Bft) W 263 0 min 0,000 mm 1,9 UV-I 272 W/m 12,2 C 13,6 C 17,7 km/h (3 Bft)
01.08.2021 11:44 14,7 C 17,8 C 16,1 C 16,1 C 15,6 C 86 % 0 lf 57 cb 200 cb 96 cb 50 cb 1010,6 hPa 0,0 l/m 2,5 km/h (1 Bft) W 278 0 min 0,000 mm 1,7 UV-I 237 W/m 12,4 C 14,7 C 9,7 km/h (2 Bft)
01.08.2021 11:42 14,8 C 17,8 C 16,1 C 16,1 C 15,6 C 86 % 0 lf 57 cb 200 cb 96 cb 50 cb 1010,7 hPa 0,0 l/m 3,2 km/h (1 Bft) W 275 0 min 0,000 mm 1,4 UV-I 202 W/m 12,5 C 14,8 C 11,3 km/h (2 Bft)
01.08.2021 11:40 14,7 C 17,2 C 16,1 C 16,1 C 15,6 C 86 % 0 lf 56 cb 200 cb 96 cb 50 cb 1010,6 hPa 0,0 l/m 2,1 km/h (1 Bft) W-SW 246 0 min 0,000 mm 1,7 UV-I 230 W/m 12,4 C 14,7 C 8,0 km/h (2 Bft)
01.08.2021 11:38 14,7 C 17,2 C 16,1 C 16,1 C 15,6 C 86 % 0 lf 56 cb 200 cb 96 cb 50 cb 1010,6 hPa 0,0 l/m 1,6 km/h (1 Bft) W-SW 245 0 min 0,000 mm 1,8 UV-I 315 W/m 12,4 C 14,7 C 8,0 km/h (2 Bft)
01.08.2021 11:36 14,7 C 17,2 C 16,1 C 16,1 C 15,6 C 86 % 0 lf 56 cb 200 cb 96 cb 50 cb 1010,6 hPa 0,0 l/m 2,6 km/h (1 Bft) W-SW 246 0 min 0,000 mm 1,5 UV-I 218 W/m 12,4 C 14,7 C 8,0 km/h (2 Bft)
01.08.2021 11:34 14,6 C 17,2 C 16,1 C 16,1 C 15,6 C 86 % 0 lf 56 cb 200 cb 96 cb 50 cb 1010,6 hPa 0,0 l/m 1,3 km/h (1 Bft) W 269 0 min 0,000 mm 1,8 UV-I 248 W/m 12,3 C 14,6 C 9,7 km/h (2 Bft)
01.08.2021 11:32 14,6 C 17,2 C 16,1 C 16,1 C 15,6 C 86 % 0 lf 56 cb 200 cb 96 cb 50 cb 1010,6 hPa 0,0 l/m 1,9 km/h (1 Bft) W 264 0 min 0,000 mm 1,5 UV-I 223 W/m 12,3 C 14,6 C 8,0 km/h (2 Bft)
01.08.2021 11:30 14,6 C 17,2 C 16,1 C 16,1 C 15,6 C 86 % 0 lf 56 cb 200 cb 96 cb 50 cb 1010,6 hPa 0,0 l/m 4,4 km/h (1 Bft) SW 233 0 min 0,000 mm 1,4 UV-I 211 W/m 12,3 C 14,6 C 17,7 km/h (3 Bft)
01.08.2021 11:28 14,6 C 17,2 C 15,6 C 16,1 C 15,6 C 86 % 0 lf 56 cb 200 cb 96 cb 50 cb 1010,6 hPa 0,0 l/m 6,9 km/h (2 Bft) W-SW 251 0 min 0,000 mm 2,1 UV-I 258 W/m 12,3 C 14,3 C 16,1 km/h (3 Bft)
01.08.2021 11:26 14,6 C 17,2 C 15,6 C 16,1 C 15,6 C 86 % 0 lf 57 cb 200 cb 96 cb 50 cb 1010,5 hPa 0,0 l/m 4,9 km/h (1 Bft) W 268 0 min 0,000 mm 2,0 UV-I 281 W/m 12,3 C 14,6 C 16,1 km/h (3 Bft)
01.08.2021 11:24 14,4 C 16,7 C 15,6 C 16,1 C 15,6 C 86 % 0 lf 56 cb 200 cb 96 cb 50 cb 1010,5 hPa 0,0 l/m 5,2 km/h (1 Bft) SW 229 0 min 0,000 mm 1,8 UV-I 394 W/m 12,1 C 14,4 C 11,3 km/h (2 Bft)
01.08.2021 11:22 14,4 C 16,7 C 15,6 C 16,1 C 15,6 C 85 % 0 lf 56 cb 200 cb 96 cb 50 cb 1010,5 hPa 0,0 l/m 0,8 km/h (0 Bft) S 180 0 min 0,000 mm 2,7 UV-I 394 W/m 11,9 C 14,4 C 8,0 km/h (2 Bft)
01.08.2021 11:20 14,5 C 16,7 C 15,6 C 16,1 C 15,6 C 86 % 0 lf 56 cb 200 cb 96 cb 50 cb 1010,4 hPa 0,0 l/m 2,4 km/h (1 Bft) SW 236 0 min 0,000 mm 2,4 UV-I 334 W/m 12,2 C 14,5 C 11,3 km/h (2 Bft)
01.08.2021 11:18 14,6 C 16,7 C 15,6 C 16,1 C 15,6 C 85 % 0 lf 56 cb 200 cb 96 cb 50 cb 1010,4 hPa 0,0 l/m 2,6 km/h (1 Bft) W-SW 242 0 min 0,000 mm 2,2 UV-I 299 W/m 12,1 C 14,6 C 17,7 km/h (3 Bft)
01.08.2021 11:16 14,7 C 16,7 C 15,6 C 16,1 C 15,6 C 85 % 0 lf 56 cb 200 cb 96 cb 50 cb 1010,3 hPa 0,0 l/m 1,9 km/h (1 Bft) W-SW 248 0 min 0,000 mm 2,3 UV-I 352 W/m 12,2 C 14,7 C 9,7 km/h (2 Bft)
01.08.2021 11:14 14,7 C 17,2 C 15,6 C 16,1 C 15,6 C 85 % 0 lf 56 cb 200 cb 96 cb 50 cb 1010,4 hPa 0,0 l/m 1,1 km/h (1 Bft) W-SW 250 0 min 0,000 mm 4,0 UV-I 352 W/m 12,2 C 14,7 C 6,4 km/h (2 Bft)
01.08.2021 11:12 14,7 C 17,2 C 15,6 C 16,1 C 15,6 C 84 % 0 lf 56 cb 200 cb 96 cb 50 cb 1010,4 hPa 0,0 l/m 6,1 km/h (2 Bft) W-SW 250 0 min 0,000 mm 2,2 UV-I 352 W/m 12,0 C 14,7 C 14,5 km/h (3 Bft)
01.08.2021 11:10 14,7 C 17,2 C 15,6 C 16,1 C 15,6 C 84 % 0 lf 56 cb 200 cb 96 cb 50 cb 1010,4 hPa 0,0 l/m 2,6 km/h (1 Bft) W 266 0 min 0,000 mm 2,9 UV-I 209 W/m 12,0 C 14,7 C 8,0 km/h (2 Bft)
01.08.2021 11:09 14,7 C 17,2 C 15,6 C 16,1 C 15,6 C 83 % 0 lf 56 cb 200 cb 96 cb 50 cb 1010,4 hPa 0,0 l/m 4,1 km/h (1 Bft) W 276 0 min 0,000 mm 2,1 UV-I 209 W/m 11,8 C 14,7 C 9,7 km/h (2 Bft)
01.08.2021 11:08 14,7 C 17,2 C 15,6 C 16,1 C 15,6 C 84 % 0 lf 56 cb 200 cb 96 cb 50 cb 1010,4 hPa 0,0 l/m 7,0 km/h (2 Bft) W 264 0 min 0,000 mm 2,2 UV-I 193 W/m 12,0 C 14,4 C 22,5 km/h (4 Bft)
01.08.2021 11:06 14,8 C 17,2 C 15,6 C 16,1 C 15,6 C 84 % 0 lf 56 cb 200 cb 96 cb 50 cb 1010,4 hPa 0,0 l/m 6,9 km/h (2 Bft) W-NW 288 0 min 0,000 mm 1,7 UV-I 178 W/m 12,1 C 14,5 C 19,3 km/h (3 Bft)
01.08.2021 11:04 14,8 C 17,8 C 15,6 C 16,1 C 15,6 C 84 % 0 lf 57 cb 200 cb 96 cb 50 cb 1010,3 hPa 0,0 l/m 6,2 km/h (2 Bft) W 267 0 min 0,000 mm 1,3 UV-I 172 W/m 12,1 C 14,8 C 14,5 km/h (3 Bft)
01.08.2021 11:02 14,8 C 17,8 C 15,6 C 16,1 C 15,6 C 84 % 0 lf 57 cb 200 cb 96 cb 50 cb 1010,2 hPa 0,0 l/m 3,1 km/h (1 Bft) W 281 0 min 0,000 mm 1,5 UV-I 197 W/m 12,1 C 14,8 C 11,3 km/h (2 Bft)
01.08.2021 11:00 14,8 C 17,2 C 15,6 C 16,1 C 15,6 C 84 % 0 lf 56 cb 200 cb 96 cb 50 cb 1010,2 hPa 0,0 l/m 4,1 km/h (1 Bft) W 277 0 min 0,153 mm 1,4 UV-I 193 W/m 12,1 C 14,8 C 16,1 km/h (3 Bft)
01.08.2021 10:58 14,8 C 17,2 C 15,6 C 16,1 C 15,6 C 83 % 0 lf 56 cb 200 cb 96 cb 50 cb 1010,2 hPa 0,0 l/m 5,1 km/h (1 Bft) W 274 0 min 0,000 mm 1,2 UV-I 178 W/m 11,9 C 14,8 C 17,7 km/h (3 Bft)
01.08.2021 10:56 14,8 C 17,2 C 15,6 C 16,1 C 15,6 C 84 % 0 lf 56 cb 200 cb 96 cb 50 cb 1010,2 hPa 0,0 l/m 9,0 km/h (2 Bft) W-SW 246 2 min 0,000 mm 1,3 UV-I 719 W/m 12,1 C 13,4 C 20,9 km/h (4 Bft)
01.08.2021 10:54 14,8 C 17,2 C 15,6 C 15,6 C 15,6 C 84 % 0 lf 56 cb 200 cb 95 cb 50 cb 1010,1 hPa 0,0 l/m 6,9 km/h (2 Bft) W-NW 286 2 min 0,000 mm 1,9 UV-I 719 W/m 12,1 C 14,5 C 14,5 km/h (3 Bft)
01.08.2021 10:52 14,8 C 17,2 C 15,6 C 15,6 C 15,6 C 85 % 0 lf 56 cb 200 cb 95 cb 50 cb 1010,1 hPa 0,0 l/m 6,5 km/h (2 Bft) W-SW 252 2 min 0,000 mm 3,7 UV-I 719 W/m 12,3 C 14,8 C 14,5 km/h (3 Bft)
01.08.2021 10:50 14,8 C 17,2 C 15,6 C 15,6 C 15,6 C 85 % 0 lf 56 cb 200 cb 95 cb 50 cb 1010,2 hPa 0,0 l/m 2,6 km/h (1 Bft) SW 223 0 min 0,000 mm 2,4 UV-I 216 W/m 12,3 C 14,8 C 16,1 km/h (3 Bft)
01.08.2021 10:48 14,8 C 17,8 C 15,6 C 15,6 C 15,6 C 84 % 0 lf 57 cb 200 cb 95 cb 50 cb 1010,1 hPa 0,0 l/m 2,5 km/h (1 Bft) W-SW 238 0 min 0,000 mm 1,4 UV-I 216 W/m 12,1 C 14,8 C 11,3 km/h (2 Bft)
01.08.2021 10:46 14,8 C 17,8 C 15,6 C 15,6 C 15,6 C 84 % 0 lf 57 cb 200 cb 95 cb 50 cb 1010,2 hPa 0,0 l/m 2,7 km/h (1 Bft) W-SW 257 0 min 0,000 mm 1,1 UV-I 202 W/m 12,1 C 14,8 C 9,7 km/h (2 Bft)
01.08.2021 10:44 14,9 C 17,8 C 15,6 C 15,6 C 15,6 C 83 % 0 lf 57 cb 200 cb 96 cb 50 cb 1010,1 hPa 0,0 l/m 1,3 km/h (1 Bft) W 281 0 min 0,000 mm 1,6 UV-I 283 W/m 12,0 C 14,9 C 8,0 km/h (2 Bft)
01.08.2021 10:42 15,0 C 17,8 C 15,6 C 15,6 C 15,6 C 83 % 0 lf 57 cb 200 cb 96 cb 50 cb 1010,1 hPa 0,0 l/m 7,5 km/h (2 Bft) W-NW 286 0 min 0,000 mm 2,0 UV-I 295 W/m 12,1 C 14,4 C 16,1 km/h (3 Bft)
01.08.2021 10:40 15,0 C 17,8 C 15,6 C 15,6 C 15,6 C 83 % 0 lf 57 cb 200 cb 96 cb 50 cb 1010,1 hPa 0,0 l/m 5,3 km/h (1 Bft) W-NW 296 0 min 0,000 mm 1,3 UV-I 216 W/m 12,1 C 15,0 C 16,1 km/h (3 Bft)
01.08.2021 10:38 15,0 C 17,8 C 15,6 C 15,6 C 15,6 C 83 % 0 lf 57 cb 200 cb 96 cb 50 cb 1010,0 hPa 0,0 l/m 9,2 km/h (2 Bft) W 273 0 min 0,000 mm 1,0 UV-I 269 W/m 12,1 C 13,5 C 17,7 km/h (3 Bft)
01.08.2021 10:36 15,0 C 17,2 C 15,6 C 15,6 C 15,6 C 83 % 0 lf 57 cb 200 cb 96 cb 50 cb 1010,1 hPa 0,0 l/m 4,4 km/h (1 Bft) SW 232 0 min 0,000 mm 1,2 UV-I 241 W/m 12,1 C 15,0 C 17,7 km/h (3 Bft)
01.08.2021 10:34 15,1 C 17,2 C 15,6 C 15,6 C 15,6 C 83 % 0 lf 57 cb 200 cb 96 cb 50 cb 1010,0 hPa 0,0 l/m 3,8 km/h (1 Bft) W 277 0 min 0,000 mm 1,3 UV-I 243 W/m 12,2 C 15,1 C 11,3 km/h (2 Bft)
01.08.2021 10:32 15,2 C 17,2 C 15,6 C 15,6 C 15,6 C 81 % 0 lf 57 cb 200 cb 96 cb 50 cb 1010,0 hPa 0,0 l/m 2,2 km/h (1 Bft) W-SW 250 0 min 0,000 mm 1,2 UV-I 232 W/m 12,0 C 15,2 C 14,5 km/h (3 Bft)
01.08.2021 10:30 15,3 C 17,2 C 15,6 C 15,6 C 15,6 C 81 % 0 lf 57 cb 200 cb 96 cb 50 cb 1010,0 hPa 0,0 l/m 9,9 km/h (2 Bft) W-SW 242 0 min 0,000 mm 1,5 UV-I 272 W/m 12,1 C 13,5 C 17,7 km/h (3 Bft)
01.08.2021 10:28 15,4 C 17,2 C 15,6 C 15,6 C 15,6 C 81 % 0 lf 57 cb 200 cb 96 cb 50 cb 1010,0 hPa 0,0 l/m 8,2 km/h (2 Bft) W-NW 290 0 min 0,000 mm 1,2 UV-I 144 W/m 12,2 C 14,4 C 20,9 km/h (4 Bft)
01.08.2021 10:26 15,5 C 17,2 C 15,6 C 15,6 C 15,6 C 81 % 0 lf 57 cb 200 cb 96 cb 50 cb 1010,0 hPa 0,0 l/m 5,7 km/h (1 Bft) W-NW 298 0 min 0,000 mm 1,2 UV-I 232 W/m 12,3 C 15,5 C 16,1 km/h (3 Bft)
01.08.2021 10:24 15,6 C 17,2 C 15,6 C 15,6 C 15,6 C 81 % 0 lf 57 cb 200 cb 96 cb 50 cb 1009,9 hPa 0,0 l/m 5,4 km/h (1 Bft) W-NW 294 0 min 0,000 mm 1,4 UV-I 192 W/m 12,3 C 15,6 C 19,3 km/h (3 Bft)
01.08.2021 10:22 15,6 C 17,2 C 15,0 C 15,6 C 15,6 C 83 % 0 lf 57 cb 200 cb 96 cb 50 cb 1009,9 hPa 0,0 l/m 5,2 km/h (1 Bft) W-SW 257 0 min 0,000 mm 1,0 UV-I 163 W/m 12,7 C 15,6 C 9,7 km/h (2 Bft)
01.08.2021 10:20 15,5 C 16,7 C 15,0 C 15,6 C 15,6 C 82 % 0 lf 57 cb 200 cb 96 cb 50 cb 1009,9 hPa 0,0 l/m 1,5 km/h (1 Bft) W-SW 251 0 min 0,000 mm 1,5 UV-I 323 W/m 12,4 C 15,5 C 6,4 km/h (2 Bft)
01.08.2021 10:18 15,4 C 16,1 C 15,0 C 15,6 C 15,6 C 82 % 0 lf 56 cb 200 cb 96 cb 50 cb 1010,0 hPa 0,0 l/m 3,6 km/h (1 Bft) W-SW 247 2 min 0,000 mm 1,5 UV-I 373 W/m 12,3 C 15,4 C 11,3 km/h (2 Bft)
01.08.2021 10:16 15,3 C 16,1 C 15,0 C 15,6 C 15,6 C 81 % 0 lf 56 cb 200 cb 96 cb 50 cb 1009,9 hPa 0,0 l/m 2,8 km/h (1 Bft) W 269 0 min 0,000 mm 1,4 UV-I 171 W/m 12,1 C 15,3 C 9,7 km/h (2 Bft)
01.08.2021 10:14 15,3 C 16,1 C 15,0 C 15,6 C 15,6 C 83 % 0 lf 56 cb 200 cb 96 cb 50 cb 1009,9 hPa 0,0 l/m 3,4 km/h (1 Bft) SW 235 0 min 0,000 mm 1,3 UV-I 141 W/m 12,4 C 15,3 C 11,3 km/h (2 Bft)
01.08.2021 10:12 15,2 C 16,1 C 15,0 C 15,6 C 15,6 C 82 % 0 lf 56 cb 200 cb 96 cb 50 cb 1009,9 hPa 0,0 l/m 4,9 km/h (1 Bft) W-NW 293 0 min 0,000 mm 1,8 UV-I 151 W/m 12,1 C 15,2 C 12,9 km/h (3 Bft)
01.08.2021 10:10 15,2 C 16,1 C 15,0 C 15,6 C 15,6 C 82 % 0 lf 56 cb 200 cb 96 cb 50 cb 1010,0 hPa 0,0 l/m 4,0 km/h (1 Bft) W 273 0 min 0,000 mm 1,5 UV-I 186 W/m 12,1 C 15,2 C 16,1 km/h (3 Bft)
01.08.2021 10:08 15,1 C 16,1 C 15,0 C 15,6 C 15,6 C 81 % 0 lf 56 cb 200 cb 96 cb 50 cb 1010,0 hPa 0,0 l/m 5,6 km/h (1 Bft) W 277 0 min 0,000 mm 1,3 UV-I 206 W/m 11,9 C 15,1 C 16,1 km/h (3 Bft)
01.08.2021 10:06 15,1 C 16,1 C 15,0 C 15,6 C 15,6 C 81 % 0 lf 56 cb 200 cb 96 cb 50 cb 1009,9 hPa 0,0 l/m 9,0 km/h (2 Bft) W 265 0 min 0,000 mm 1,2 UV-I 206 W/m 11,9 C 13,7 C 19,3 km/h (3 Bft)
01.08.2021 10:04 15,2 C 16,1 C 15,0 C 15,6 C 15,6 C 82 % 0 lf 56 cb 200 cb 96 cb 50 cb 1009,8 hPa 0,0 l/m 7,6 km/h (2 Bft) W 269 0 min 0,000 mm 1,3 UV-I 220 W/m 12,1 C 14,5 C 19,3 km/h (3 Bft)
01.08.2021 10:02 15,2 C 16,1 C 15,0 C 15,6 C 15,6 C 81 % 0 lf 56 cb 200 cb 96 cb 50 cb 1009,8 hPa 0,0 l/m 4,4 km/h (1 Bft) W 281 0 min 0,000 mm 1,4 UV-I 146 W/m 12,0 C 15,2 C 11,3 km/h (2 Bft)
01.08.2021 10:00 15,2 C 16,1 C 15,0 C 15,6 C 15,6 C 80 % 0 lf 56 cb 200 cb 96 cb 50 cb 1009,8 hPa 0,0 l/m 4,3 km/h (1 Bft) W-NW 298 0 min 0,076 mm 1,0 UV-I 84 W/m 11,8 C 15,2 C 14,5 km/h (3 Bft)
01.08.2021 09:58 15,3 C 16,7 C 15,0 C 15,6 C 15,6 C 80 % 0 lf 57 cb 200 cb 96 cb 50 cb 1009,8 hPa 0,0 l/m 5,9 km/h (2 Bft) W-NW 287 0 min 0,000 mm 1,0 UV-I 93 W/m 11,9 C 15,3 C 16,1 km/h (3 Bft)
01.08.2021 09:56 15,3 C 17,2 C 15,0 C 15,6 C 15,6 C 80 % 0 lf 58 cb 200 cb 96 cb 50 cb 1009,8 hPa 0,0 l/m 4,8 km/h (1 Bft) W 273 0 min 0,000 mm 1,0 UV-I 204 W/m 11,9 C 15,3 C 11,3 km/h (2 Bft)
01.08.2021 09:54 15,4 C 17,8 C 15,0 C 15,6 C 15,6 C 81 % 0 lf 58 cb 200 cb 96 cb 50 cb 1009,9 hPa 0,0 l/m 2,7 km/h (1 Bft) W-NW 296 0 min 0,000 mm 1,4 UV-I 188 W/m 12,2 C 15,4 C 9,7 km/h (2 Bft)
01.08.2021 09:52 15,3 C 17,8 C 15,0 C 15,6 C 15,6 C 82 % 0 lf 58 cb 200 cb 96 cb 50 cb 1009,9 hPa 0,0 l/m 0,2 km/h (0 Bft) NW 314 0 min 0,000 mm 1,4 UV-I 137 W/m 12,2 C 15,3 C 3,2 km/h (1 Bft)
01.08.2021 09:50 15,3 C 18,3 C 15,0 C 15,6 C 15,6 C 82 % 0 lf 59 cb 200 cb 96 cb 50 cb 1009,9 hPa 0,0 l/m 2,4 km/h (1 Bft) NW 315 0 min 0,000 mm 1,6 UV-I 227 W/m 12,2 C 15,3 C 16,1 km/h (3 Bft)
01.08.2021 09:48 15,3 C 18,9 C 15,0 C 15,6 C 15,6 C 82 % 0 lf 59 cb 200 cb 96 cb 50 cb 1009,8 hPa 0,0 l/m 0,3 km/h (0 Bft) W 259 0 min 0,000 mm 1,3 UV-I 243 W/m 12,2 C 15,3 C 3,2 km/h (1 Bft)
01.08.2021 09:46 15,3 C 19,4 C 15,0 C 15,6 C 15,6 C 82 % 0 lf 60 cb 200 cb 96 cb 50 cb 1009,8 hPa 0,0 l/m 3,3 km/h (1 Bft) W 259 2 min 0,000 mm 1,1 UV-I 325 W/m 12,2 C 15,3 C 16,1 km/h (3 Bft)
01.08.2021 09:44 15,3 C 19,4 C 15,0 C 15,6 C 15,6 C 80 % 0 lf 60 cb 200 cb 96 cb 50 cb 1009,8 hPa 0,0 l/m 4,8 km/h (1 Bft) W-NW 285 0 min 0,000 mm 1,0 UV-I 267 W/m 11,9 C 15,3 C 11,3 km/h (2 Bft)
01.08.2021 09:42 15,3 C 20,6 C 15,0 C 15,6 C 15,6 C 81 % 0 lf 61 cb 200 cb 96 cb 50 cb 1009,8 hPa 0,0 l/m 2,2 km/h (1 Bft) W 275 0 min 0,000 mm 0,8 UV-I 86 W/m 12,1 C 15,3 C 9,7 km/h (2 Bft)
01.08.2021 09:40 15,3 C 21,1 C 15,0 C 15,6 C 15,6 C 81 % 0 lf 62 cb 200 cb 96 cb 50 cb 1009,7 hPa 0,0 l/m 1,5 km/h (1 Bft) W 266 0 min 0,000 mm 0,9 UV-I 148 W/m 12,1 C 15,3 C 8,0 km/h (2 Bft)
01.08.2021 09:38 15,3 C 22,8 C 15,0 C 15,6 C 15,6 C 83 % 0 lf 64 cb 200 cb 97 cb 50 cb 1009,7 hPa 0,0 l/m 5,4 km/h (1 Bft) W 259 0 min 0,000 mm 0,8 UV-I 114 W/m 12,4 C 15,3 C 14,5 km/h (3 Bft)
01.08.2021 09:36 15,3 C 23,9 C 15,0 C 15,6 C 15,6 C 82 % 0 lf 65 cb 200 cb 97 cb 50 cb 1009,7 hPa 0,0 l/m 1,5 km/h (1 Bft) W 266 0 min 0,000 mm 0,8 UV-I 104 W/m 12,2 C 15,3 C 8,0 km/h (2 Bft)
01.08.2021 09:34 15,2 C 23,9 C 15,0 C 15,6 C 15,6 C 82 % 0 lf 65 cb 200 cb 97 cb 50 cb 1009,7 hPa 0,0 l/m 3,2 km/h (1 Bft) W 265 0 min 0,000 mm 0,7 UV-I 95 W/m 12,1 C 15,2 C 9,7 km/h (2 Bft)
01.08.2021 09:32 15,1 C 23,3 C 15,0 C 15,6 C 15,6 C 82 % 0 lf 64 cb 200 cb 97 cb 50 cb 1009,7 hPa 0,0 l/m 1,6 km/h (1 Bft) W 271 0 min 0,000 mm 0,7 UV-I 84 W/m 12,0 C 15,1 C 8,0 km/h (2 Bft)
01.08.2021 09:30 15,0 C 22,8 C 15,0 C 15,6 C 15,6 C 81 % 0 lf 64 cb 200 cb 97 cb 50 cb 1009,7 hPa 0,0 l/m 0,3 km/h (0 Bft) W 275 0 min 0,000 mm 0,7 UV-I 76 W/m 11,8 C 15,0 C 4,8 km/h (1 Bft)
01.08.2021 09:28 15,0 C 22,2 C 15,0 C 15,6 C 15,6 C 82 % 0 lf 63 cb 200 cb 97 cb 50 cb 1009,7 hPa 0,0 l/m 0,0 km/h (0 Bft) W 274 0 min 0,000 mm 0,7 UV-I 72 W/m 12,0 C 15,0 C 1,6 km/h (1 Bft)
01.08.2021 09:26 15,0 C 21,7 C 15,0 C 15,6 C 15,6 C 81 % 0 lf 62 cb 200 cb 97 cb 50 cb 1009,6 hPa 0,0 l/m 0,0 km/h (0 Bft) W 274 0 min 0,000 mm 0,7 UV-I 70 W/m 11,8 C 15,0 C 0,0 km/h (0 Bft)
01.08.2021 09:24 15,0 C 21,1 C 15,0 C 15,6 C 15,6 C 81 % 0 lf 62 cb 200 cb 97 cb 49 cb 1009,6 hPa 0,0 l/m 0,6 km/h (0 Bft) W 275 0 min 0,000 mm 0,6 UV-I 72 W/m 11,8 C 15,0 C 6,4 km/h (2 Bft)
01.08.2021 09:22 15,0 C 20,6 C 15,0 C 15,6 C 15,6 C 81 % 0 lf 61 cb 200 cb 97 cb 50 cb 1009,5 hPa 0,0 l/m 0,5 km/h (0 Bft) W 275 0 min 0,000 mm 0,6 UV-I 72 W/m 11,8 C 15,0 C 4,8 km/h (1 Bft)
01.08.2021 09:20 15,0 C 18,3 C 15,0 C 15,6 C 15,6 C 81 % 0 lf 59 cb 200 cb 97 cb 49 cb 1009,6 hPa 0,0 l/m 6,3 km/h (2 Bft) W 275 0 min 0,000 mm 0,6 UV-I 70 W/m 11,8 C 15,0 C 14,5 km/h (3 Bft)
01.08.2021 09:18 15,0 C 17,8 C 15,0 C 15,6 C 15,6 C 81 % 0 lf 58 cb 200 cb 97 cb 49 cb 1009,6 hPa 0,0 l/m 5,9 km/h (2 Bft) W-SW 257 0 min 0,000 mm 0,6 UV-I 72 W/m 11,8 C 15,0 C 16,1 km/h (3 Bft)
01.08.2021 09:16 15,0 C 17,8 C 15,0 C 15,6 C 15,6 C 82 % 0 lf 58 cb 200 cb 97 cb 49 cb 1009,6 hPa 0,0 l/m 3,0 km/h (1 Bft) W-SW 238 0 min 0,000 mm 0,6 UV-I 74 W/m 12,0 C 15,0 C 9,7 km/h (2 Bft)
01.08.2021 09:14 15,0 C 17,2 C 15,0 C 15,6 C 15,6 C 81 % 0 lf 58 cb 200 cb 97 cb 49 cb 1009,5 hPa 0,0 l/m 2,4 km/h (1 Bft) W-SW 250 0 min 0,000 mm 0,6 UV-I 104 W/m 11,8 C 15,0 C 14,5 km/h (3 Bft)
01.08.2021 09:12 14,9 C 16,7 C 15,0 C 15,6 C 15,6 C 81 % 0 lf 57 cb 200 cb 97 cb 49 cb 1009,6 hPa 0,0 l/m 2,7 km/h (1 Bft) W-SW 248 0 min 0,000 mm 0,6 UV-I 83 W/m 11,7 C 14,9 C 9,7 km/h (2 Bft)
01.08.2021 09:10 14,9 C 16,7 C 15,0 C 15,6 C 15,6 C 82 % 0 lf 57 cb 200 cb 97 cb 49 cb 1009,5 hPa 0,0 l/m 5,7 km/h (1 Bft) W-SW 244 0 min 0,000 mm 0,8 UV-I 155 W/m 11,9 C 14,9 C 17,7 km/h (3 Bft)
01.08.2021 09:08 14,8 C 16,1 C 15,0 C 15,6 C 15,6 C 83 % 0 lf 57 cb 200 cb 97 cb 49 cb 1009,5 hPa 0,0 l/m 3,3 km/h (1 Bft) W 266 0 min 0,000 mm 0,8 UV-I 185 W/m 11,9 C 14,8 C 9,7 km/h (2 Bft)
01.08.2021 09:06 14,9 C 15,6 C 15,0 C 15,6 C 15,6 C 82 % 0 lf 56 cb 200 cb 98 cb 49 cb 1009,5 hPa 0,0 l/m 2,3 km/h (1 Bft) W 271 1 min 0,000 mm 0,6 UV-I 290 W/m 11,9 C 14,9 C 9,7 km/h (2 Bft)
01.08.2021 09:05 14,9 C 15,0 C 15,0 C 15,6 C 15,6 C 82 % 0 lf 56 cb 200 cb 98 cb 49 cb 1009,5 hPa 0,0 l/m 3,6 km/h (1 Bft) W 271 1 min 0,000 mm 0,8 UV-I 299 W/m 11,9 C 14,9 C 11,3 km/h (2 Bft)
01.08.2021 09:04 14,9 C 15,0 C 15,0 C 15,6 C 15,6 C 82 % 0 lf 56 cb 200 cb 98 cb 49 cb 1009,5 hPa 0,0 l/m 3,0 km/h (1 Bft) W-SW 255 2 min 0,000 mm 0,6 UV-I 330 W/m 11,9 C 14,9 C 8,0 km/h (2 Bft)
01.08.2021 09:02 15,0 C 15,0 C 15,0 C 15,6 C 15,6 C 82 % 0 lf 56 cb 200 cb 97 cb 49 cb 1009,5 hPa 0,0 l/m 0,7 km/h (0 Bft) W 259 2 min 0,000 mm 0,9 UV-I 301 W/m 12,0 C 15,0 C 9,7 km/h (2 Bft)
01.08.2021 09:00 15,0 C 15,0 C 15,0 C 15,6 C 15,6 C 83 % 0 lf 56 cb 200 cb 97 cb 49 cb 1009,5 hPa 0,0 l/m 1,3 km/h (1 Bft) W 259 2 min 0,152 mm 0,9 UV-I 315 W/m 12,1 C 15,0 C 8,0 km/h (2 Bft)
01.08.2021 08:58 15,0 C 13,9 C 15,0 C 15,6 C 15,6 C 83 % 0 lf 55 cb 200 cb 98 cb 49 cb 1009,6 hPa 0,0 l/m 1,0 km/h (0 Bft) W 260 2 min 0,000 mm 0,9 UV-I 308 W/m 12,1 C 15,0 C 8,0 km/h (2 Bft)
01.08.2021 08:56 15,0 C 13,9 C 15,0 C 15,0 C 15,6 C 84 % 0 lf 55 cb 200 cb 97 cb 49 cb 1009,5 hPa 0,0 l/m 2,6 km/h (1 Bft) W 259 2 min 0,000 mm 0,8 UV-I 301 W/m 12,3 C 15,0 C 11,3 km/h (2 Bft)
01.08.2021 08:54 14,9 C 13,9 C 15,0 C 15,0 C 15,6 C 84 % 0 lf 55 cb 200 cb 97 cb 49 cb 1009,6 hPa 0,0 l/m 1,5 km/h (1 Bft) W 266 2 min 0,000 mm 0,8 UV-I 297 W/m 12,2 C 14,9 C 6,4 km/h (2 Bft)
01.08.2021 08:52 14,7 C 13,3 C 15,0 C 15,0 C 15,6 C 83 % 0 lf 55 cb 200 cb 97 cb 49 cb 1009,5 hPa 0,0 l/m 0,9 km/h (0 Bft) W 267 2 min 0,000 mm 0,8 UV-I 295 W/m 11,8 C 14,7 C 4,8 km/h (1 Bft)
01.08.2021 08:50 14,7 C 13,3 C 15,0 C 15,0 C 15,6 C 83 % 0 lf 55 cb 200 cb 97 cb 49 cb 1009,5 hPa 0,0 l/m 4,5 km/h (1 Bft) W 268 2 min 0,000 mm 0,7 UV-I 294 W/m 11,8 C 14,7 C 12,9 km/h (3 Bft)
01.08.2021 08:48 14,7 C 13,3 C 15,0 C 15,0 C 15,6 C 83 % 0 lf 55 cb 200 cb 97 cb 49 cb 1009,7 hPa 0,0 l/m 5,3 km/h (1 Bft) W-SW 245 2 min 0,000 mm 0,7 UV-I 292 W/m 11,8 C 14,7 C 11,3 km/h (2 Bft)
01.08.2021 08:46 14,6 C 12,8 C 15,0 C 15,0 C 15,6 C 83 % 0 lf 55 cb 200 cb 97 cb 49 cb 1009,6 hPa 0,0 l/m 6,1 km/h (2 Bft) W 265 2 min 0,000 mm 0,7 UV-I 294 W/m 11,7 C 14,6 C 14,5 km/h (3 Bft)
01.08.2021 08:44 14,5 C 12,8 C 15,0 C 15,0 C 15,6 C 84 % 0 lf 55 cb 200 cb 98 cb 49 cb 1009,6 hPa 0,0 l/m 8,4 km/h (2 Bft) SW 230 1 min 0,000 mm 0,6 UV-I 295 W/m 11,8 C 13,4 C 16,1 km/h (3 Bft)
01.08.2021 08:43 14,5 C 12,8 C 15,0 C 15,0 C 15,6 C 83 % 0 lf 55 cb 200 cb 98 cb 49 cb 1009,6 hPa 0,0 l/m 7,6 km/h (2 Bft) SW 229 1 min 0,000 mm 0,6 UV-I 295 W/m 11,6 C 13,8 C 16,1 km/h (3 Bft)
01.08.2021 08:42 14,5 C 12,8 C 14,4 C 15,0 C 15,6 C 84 % 0 lf 55 cb 200 cb 98 cb 49 cb 1009,5 hPa 0,0 l/m 1,0 km/h (0 Bft) W-SW 254 2 min 0,000 mm 0,6 UV-I 297 W/m 11,8 C 14,5 C 4,8 km/h (1 Bft)
01.08.2021 08:40 14,4 C 12,8 C 14,4 C 15,0 C 15,6 C 84 % 0 lf 55 cb 200 cb 98 cb 49 cb 1009,5 hPa 0,0 l/m 0,8 km/h (0 Bft) W-SW 253 2 min 0,000 mm 0,6 UV-I 301 W/m 11,7 C 14,4 C 6,4 km/h (2 Bft)
01.08.2021 08:38 14,4 C 12,8 C 14,4 C 15,0 C 15,6 C 83 % 0 lf 55 cb 200 cb 98 cb 49 cb 1009,5 hPa 0,0 l/m 0,5 km/h (0 Bft) W-SW 253 2 min 0,000 mm 0,6 UV-I 302 W/m 11,5 C 14,4 C 6,4 km/h (2 Bft)
01.08.2021 08:36 14,4 C 12,8 C 14,4 C 15,0 C 15,6 C 83 % 0 lf 55 cb 200 cb 98 cb 49 cb 1009,4 hPa 0,0 l/m 2,4 km/h (1 Bft) W-SW 246 2 min 0,000 mm 0,5 UV-I 302 W/m 11,5 C 14,4 C 9,7 km/h (2 Bft)
01.08.2021 08:34 14,4 C 12,8 C 14,4 C 15,0 C 15,6 C 85 % 0 lf 55 cb 200 cb 98 cb 49 cb 1009,4 hPa 0,0 l/m 1,9 km/h (1 Bft) W 261 2 min 0,000 mm 0,5 UV-I 302 W/m 11,9 C 14,4 C 9,7 km/h (2 Bft)
01.08.2021 08:32 14,4 C 12,8 C 14,4 C 15,0 C 15,6 C 86 % 0 lf 55 cb 200 cb 98 cb 49 cb 1009,4 hPa 0,0 l/m 0,6 km/h (0 Bft) W-SW 257 2 min 0,000 mm 0,5 UV-I 302 W/m 12,1 C 14,4 C 6,4 km/h (2 Bft)
01.08.2021 08:30 14,3 C 12,8 C 14,4 C 15,0 C 15,6 C 86 % 0 lf 55 cb 200 cb 98 cb 49 cb 1009,4 hPa 0,0 l/m 0,4 km/h (0 Bft) W-SW 257 2 min 0,000 mm 0,0 UV-I 302 W/m 12,0 C 14,3 C 3,2 km/h (1 Bft)
01.08.2021 08:28 14,2 C 12,2 C 14,4 C 15,0 C 15,6 C 87 % 0 lf 55 cb 200 cb 98 cb 49 cb 1009,4 hPa 0,0 l/m 2,5 km/h (1 Bft) W-SW 255 2 min 0,000 mm 0,0 UV-I 299 W/m 12,1 C 14,2 C 8,0 km/h (2 Bft)
01.08.2021 08:26 14,1 C 12,2 C 14,4 C 15,0 C 15,6 C 87 % 0 lf 55 cb 200 cb 98 cb 49 cb 1009,4 hPa 0,0 l/m 2,2 km/h (1 Bft) W-SW 246 2 min 0,000 mm 0,0 UV-I 295 W/m 12,0 C 14,1 C 11,3 km/h (2 Bft)
01.08.2021 08:24 13,9 C 12,2 C 14,4 C 15,0 C 15,6 C 87 % 0 lf 55 cb 200 cb 98 cb 49 cb 1009,4 hPa 0,0 l/m 3,8 km/h (1 Bft) W 260 2 min 0,000 mm 0,0 UV-I 292 W/m 11,8 C 13,9 C 11,3 km/h (2 Bft)
01.08.2021 08:22 13,9 C 12,2 C 14,4 C 15,0 C 15,6 C 88 % 0 lf 55 cb 200 cb 98 cb 49 cb 1009,3 hPa 0,0 l/m 1,5 km/h (1 Bft) W 261 2 min 0,000 mm 0,0 UV-I 287 W/m 11,9 C 13,9 C 6,4 km/h (2 Bft)
01.08.2021 08:20 13,8 C 12,2 C 14,4 C 15,0 C 15,6 C 88 % 0 lf 55 cb 200 cb 98 cb 49 cb 1009,4 hPa 0,0 l/m 3,7 km/h (1 Bft) W 260 2 min 0,000 mm 0,0 UV-I 276 W/m 11,8 C 13,8 C 11,3 km/h (2 Bft)
01.08.2021 08:18 13,7 C 12,2 C 14,4 C 15,0 C 15,6 C 89 % 0 lf 55 cb 200 cb 98 cb 49 cb 1009,4 hPa 0,0 l/m 3,0 km/h (1 Bft) W-SW 239 2 min 0,000 mm 0,0 UV-I 274 W/m 11,9 C 13,7 C 11,3 km/h (2 Bft)
01.08.2021 08:16 13,7 C 12,2 C 14,4 C 15,0 C 15,6 C 89 % 0 lf 55 cb 200 cb 98 cb 49 cb 1009,3 hPa 0,0 l/m 5,1 km/h (1 Bft) W-SW 245 2 min 0,000 mm 0,0 UV-I 269 W/m 11,9 C 13,7 C 11,3 km/h (2 Bft)
01.08.2021 08:14 13,6 C 12,2 C 14,4 C 15,0 C 15,6 C 89 % 0 lf 55 cb 200 cb 98 cb 49 cb 1009,4 hPa 0,0 l/m 3,0 km/h (1 Bft) W-SW 254 2 min 0,000 mm 0,0 UV-I 262 W/m 11,8 C 13,6 C 8,0 km/h (2 Bft)
01.08.2021 08:12 13,5 C 12,2 C 14,4 C 15,0 C 15,6 C 90 % 0 lf 55 cb 200 cb 98 cb 49 cb 1009,4 hPa 0,0 l/m 1,4 km/h (1 Bft) W 261 2 min 0,000 mm 0,0 UV-I 258 W/m 11,9 C 13,5 C 8,0 km/h (2 Bft)
01.08.2021 08:10 13,4 C 12,2 C 14,4 C 15,0 C 15,6 C 91 % 0 lf 55 cb 200 cb 98 cb 49 cb 1009,4 hPa 0,0 l/m 2,4 km/h (1 Bft) W-SW 257 2 min 0,000 mm 0,0 UV-I 251 W/m 12,0 C 13,4 C 9,7 km/h (2 Bft)
01.08.2021 08:08 13,3 C 12,2 C 14,4 C 15,0 C 15,6 C 91 % 0 lf 55 cb 200 cb 98 cb 49 cb 1009,4 hPa 0,0 l/m 1,3 km/h (1 Bft) W 267 2 min 0,000 mm 0,0 UV-I 246 W/m 11,9 C 13,3 C 8,0 km/h (2 Bft)
01.08.2021 08:06 13,3 C 12,2 C 14,4 C 15,0 C 15,6 C 91 % 0 lf 55 cb 200 cb 98 cb 49 cb 1009,4 hPa 0,0 l/m 0,0 km/h (0 Bft) W 269 2 min 0,000 mm 0,0 UV-I 241 W/m 11,9 C 13,3 C 0,0 km/h (0 Bft)
01.08.2021 08:04 13,2 C 12,2 C 14,4 C 15,0 C 15,6 C 92 % 0 lf 55 cb 200 cb 99 cb 49 cb 1009,4 hPa 0,0 l/m 0,8 km/h (0 Bft) W 269 2 min 0,000 mm 0,0 UV-I 239 W/m 11,9 C 13,2 C 4,8 km/h (1 Bft)
01.08.2021 08:02 13,1 C 12,2 C 14,4 C 15,0 C 15,6 C 92 % 0 lf 55 cb 200 cb 99 cb 49 cb 1009,4 hPa 0,0 l/m 0,6 km/h (0 Bft) W 269 1 min 0,000 mm 0,0 UV-I 220 W/m 11,8 C 13,1 C 3,2 km/h (1 Bft)
01.08.2021 08:01 13,1 C 12,2 C 14,4 C 15,0 C 15,6 C 92 % 0 lf 55 cb 200 cb 99 cb 49 cb 1009,4 hPa 0,0 l/m 0,4 km/h (0 Bft) W 270 1 min 0,000 mm 0,0 UV-I 206 W/m 11,8 C 13,1 C 3,2 km/h (1 Bft)
01.08.2021 08:00 13,1 C 12,2 C 14,4 C 15,0 C 15,6 C 93 % 0 lf 55 cb 200 cb 99 cb 49 cb 1009,4 hPa 0,0 l/m 1,8 km/h (1 Bft) W 269 2 min 0,051 mm 0,0 UV-I 197 W/m 12,0 C 13,1 C 11,3 km/h (2 Bft)
01.08.2021 07:58 12,9 C 12,2 C 14,4 C 15,0 C 15,6 C 93 % 0 lf 55 cb 200 cb 99 cb 49 cb 1009,3 hPa 0,0 l/m 0,2 km/h (0 Bft) W-SW 244 2 min 0,000 mm 0,0 UV-I 220 W/m 11,8 C 12,9 C 3,2 km/h (1 Bft)
01.08.2021 07:56 12,8 C 11,7 C 14,4 C 15,0 C 15,6 C 93 % 0 lf 55 cb 200 cb 99 cb 49 cb 1009,4 hPa 0,0 l/m 1,7 km/h (1 Bft) W-SW 244 2 min 0,000 mm 0,0 UV-I 211 W/m 11,7 C 12,8 C 6,4 km/h (2 Bft)
01.08.2021 07:54 12,7 C 11,7 C 14,4 C 15,0 C 15,6 C 94 % 0 lf 55 cb 200 cb 99 cb 49 cb 1009,4 hPa 0,0 l/m 2,2 km/h (1 Bft) W-SW 248 2 min 0,000 mm 0,0 UV-I 211 W/m 11,8 C 12,7 C 6,4 km/h (2 Bft)
01.08.2021 07:52 12,7 C 11,7 C 14,4 C 15,0 C 15,6 C 94 % 0 lf 55 cb 200 cb 99 cb 49 cb 1009,4 hPa 0,0 l/m 1,2 km/h (1 Bft) W-SW 239 2 min 0,000 mm 0,0 UV-I 207 W/m 11,8 C 12,7 C 9,7 km/h (2 Bft)
01.08.2021 07:50 12,6 C 11,7 C 14,4 C 15,0 C 15,6 C 94 % 0 lf 55 cb 200 cb 99 cb 49 cb 1009,4 hPa 0,0 l/m 2,6 km/h (1 Bft) W-SW 240 2 min 0,000 mm 0,0 UV-I 190 W/m 11,7 C 12,6 C 9,7 km/h (2 Bft)
01.08.2021 07:48 12,5 C 11,7 C 14,4 C 15,0 C 15,6 C 94 % 0 lf 55 cb 200 cb 99 cb 49 cb 1009,4 hPa 0,0 l/m 2,8 km/h (1 Bft) SW 231 2 min 0,000 mm 0,0 UV-I 186 W/m 11,6 C 12,5 C 11,3 km/h (2 Bft)
01.08.2021 07:46 12,4 C 11,7 C 14,4 C 15,0 C 15,6 C 95 % 0 lf 55 cb 200 cb 99 cb 49 cb 1009,4 hPa 0,0 l/m 1,8 km/h (1 Bft) W-SW 255 2 min 0,000 mm 0,0 UV-I 167 W/m 11,6 C 12,4 C 6,4 km/h (2 Bft)
01.08.2021 07:44 12,3 C 11,7 C 14,4 C 15,0 C 15,6 C 94 % 0 lf 55 cb 200 cb 99 cb 49 cb 1009,5 hPa 0,0 l/m 1,8 km/h (1 Bft) W-SW 255 2 min 0,000 mm 0,0 UV-I 183 W/m 11,4 C 12,3 C 9,7 km/h (2 Bft)
01.08.2021 07:42 12,3 C 11,7 C 14,4 C 15,0 C 15,6 C 95 % 0 lf 55 cb 200 cb 99 cb 49 cb 1009,4 hPa 0,0 l/m 1,6 km/h (1 Bft) W-SW 244 2 min 0,000 mm 0,0 UV-I 174 W/m 11,5 C 12,3 C 6,4 km/h (2 Bft)
01.08.2021 07:40 12,2 C 11,7 C 14,4 C 15,0 C 15,6 C 95 % 0 lf 55 cb 200 cb 99 cb 49 cb 1009,4 hPa 0,0 l/m 3,7 km/h (1 Bft) W-SW 243 2 min 0,000 mm 0,0 UV-I 151 W/m 11,4 C 12,2 C 8,0 km/h (2 Bft)
01.08.2021 07:38 12,2 C 11,7 C 14,4 C 15,0 C 15,6 C 95 % 0 lf 55 cb 200 cb 99 cb 49 cb 1009,5 hPa 0,0 l/m 0,6 km/h (0 Bft) W-SW 242 2 min 0,000 mm 0,0 UV-I 167 W/m 11,4 C 12,2 C 8,0 km/h (2 Bft)
01.08.2021 07:36 12,1 C 11,1 C 14,4 C 15,0 C 15,6 C 95 % 0 lf 55 cb 200 cb 99 cb 49 cb 1009,5 hPa 0,0 l/m 0,0 km/h (0 Bft) W-SW 242 0 min 0,000 mm 0,0 UV-I 118 W/m 11,3 C 12,1 C 0,0 km/h (0 Bft)
01.08.2021 07:34 12,1 C 11,1 C 14,4 C 15,0 C 15,6 C 95 % 0 lf 55 cb 200 cb 99 cb 49 cb 1009,5 hPa 0,0 l/m 2,4 km/h (1 Bft) W-SW 242 0 min 0,000 mm 0,0 UV-I 114 W/m 11,3 C 12,1 C 8,0 km/h (2 Bft)
01.08.2021 07:32 12,0 C 11,1 C 14,4 C 15,0 C 15,6 C 95 % 1 lf 55 cb 200 cb 99 cb 49 cb 1009,5 hPa 0,0 l/m 0,0 km/h (0 Bft) W-SW 242 2 min 0,000 mm 0,0 UV-I 120 W/m 11,2 C 12,0 C 0,0 km/h (0 Bft)
01.08.2021 07:30 11,9 C 11,1 C 14,4 C 15,0 C 15,6 C 95 % 1 lf 55 cb 200 cb 99 cb 49 cb 1009,5 hPa 0,0 l/m 0,8 km/h (0 Bft) W-SW 242 0 min 0,000 mm 0,0 UV-I 79 W/m 11,1 C 11,9 C 4,8 km/h (1 Bft)
01.08.2021 07:28 11,9 C 11,1 C 14,4 C 15,0 C 15,6 C 95 % 2 lf 55 cb 200 cb 99 cb 49 cb 1009,6 hPa 0,0 l/m 0,8 km/h (0 Bft) W-SW 242 0 min 0,000 mm 0,0 UV-I 54 W/m 11,1 C 11,9 C 4,8 km/h (1 Bft)
01.08.2021 07:26 11,9 C 11,1 C 14,4 C 15,0 C 15,6 C 95 % 2 lf 55 cb 200 cb 99 cb 49 cb 1009,5 hPa 0,0 l/m 0,0 km/h (0 Bft) W-SW 242 0 min 0,000 mm 0,0 UV-I 54 W/m 11,1 C 11,9 C 0,0 km/h (0 Bft)
01.08.2021 07:24 11,9 C 10,6 C 14,4 C 15,0 C 15,6 C 95 % 3 lf 55 cb 200 cb 99 cb 49 cb 1009,6 hPa 0,0 l/m 0,0 km/h (0 Bft) W-SW 242 0 min 0,000 mm 0,0 UV-I 60 W/m 11,1 C 11,9 C 0,0 km/h (0 Bft)
01.08.2021 07:22 11,8 C 10,6 C 14,4 C 15,0 C 15,6 C 95 % 3 lf 55 cb 200 cb 99 cb 49 cb 1009,5 hPa 0,0 l/m 0,0 km/h (0 Bft) W-SW 242 0 min 0,000 mm 0,0 UV-I 62 W/m 11,0 C 11,8 C 0,0 km/h (0 Bft)
01.08.2021 07:20 11,8 C 10,6 C 14,4 C 15,0 C 15,6 C 95 % 3 lf 55 cb 200 cb 99 cb 49 cb 1009,5 hPa 0,0 l/m 0,0 km/h (0 Bft) W-SW 242 0 min 0,000 mm 0,0 UV-I 46 W/m 11,0 C 11,8 C 0,0 km/h (0 Bft)
01.08.2021 07:18 11,8 C 10,6 C 14,4 C 15,0 C 15,6 C 95 % 3 lf 55 cb 200 cb 99 cb 49 cb 1009,5 hPa 0,0 l/m 0,2 km/h (0 Bft) W-SW 242 0 min 0,000 mm 0,0 UV-I 44 W/m 11,0 C 11,8 C 3,2 km/h (1 Bft)
01.08.2021 07:16 11,8 C 10,6 C 14,4 C 15,0 C 15,6 C 95 % 3 lf 55 cb 200 cb 100 cb 49 cb 1009,5 hPa 0,0 l/m 1,0 km/h (0 Bft) W-SW 242 0 min 0,000 mm 0,0 UV-I 42 W/m 11,0 C 11,8 C 6,4 km/h (2 Bft)
01.08.2021 07:14 11,8 C 10,6 C 14,4 C 15,0 C 15,6 C 95 % 4 lf 55 cb 200 cb 100 cb 49 cb 1009,5 hPa 0,0 l/m 0,9 km/h (0 Bft) W-SW 242 0 min 0,000 mm 0,0 UV-I 30 W/m 11,0 C 11,8 C 8,0 km/h (2 Bft)
01.08.2021 07:12 11,8 C 10,6 C 14,4 C 15,0 C 15,6 C 95 % 4 lf 55 cb 200 cb 100 cb 49 cb 1009,5 hPa 0,0 l/m 0,0 km/h (0 Bft) W-SW 242 0 min 0,000 mm 0,0 UV-I 33 W/m 11,0 C 11,8 C 0,0 km/h (0 Bft)
01.08.2021 07:10 11,8 C 10,6 C 14,4 C 15,0 C 15,6 C 95 % 4 lf 55 cb 200 cb 100 cb 49 cb 1009,5 hPa 0,0 l/m 1,4 km/h (1 Bft) W-SW 242 0 min 0,000 mm 0,0 UV-I 28 W/m 11,0 C 11,8 C 9,7 km/h (2 Bft)
01.08.2021 07:08 11,8 C 10,6 C 14,4 C 15,0 C 15,6 C 95 % 4 lf 55 cb 200 cb 100 cb 49 cb 1009,5 hPa 0,0 l/m 0,7 km/h (0 Bft) W-SW 242 0 min 0,000 mm 0,0 UV-I 23 W/m 11,0 C 11,8 C 8,0 km/h (2 Bft)
01.08.2021 07:06 11,8 C 10,6 C 14,4 C 15,0 C 15,6 C 95 % 4 lf 55 cb 200 cb 100 cb 49 cb 1009,5 hPa 0,0 l/m 1,8 km/h (1 Bft) W-SW 242 0 min 0,000 mm 0,0 UV-I 23 W/m 11,0 C 11,8 C 9,7 km/h (2 Bft)
01.08.2021 07:04 11,8 C 10,6 C 15,0 C 15,0 C 15,6 C 95 % 4 lf 55 cb 200 cb 100 cb 49 cb 1009,5 hPa 0,0 l/m 0,0 km/h (0 Bft) W-SW 241 0 min 0,000 mm 0,0 UV-I 21 W/m 11,0 C 11,8 C 1,6 km/h (1 Bft)
01.08.2021 07:02 11,8 C 10,6 C 15,0 C 15,6 C 15,6 C 95 % 4 lf 55 cb 200 cb 101 cb 49 cb 1009,5 hPa 0,0 l/m 0,0 km/h (0 Bft) W-SW 241 0 min 0,000 mm 0,0 UV-I 23 W/m 11,0 C 11,8 C 0,0 km/h (0 Bft)
01.08.2021 07:00 11,8 C 11,1 C 15,0 C 15,6 C 15,6 C 95 % 4 lf 55 cb 200 cb 101 cb 49 cb 1009,5 hPa 0,0 l/m 0,2 km/h (0 Bft) W-SW 241 0 min 0,000 mm 0,0 UV-I 18 W/m 11,0 C 11,8 C 4,8 km/h (1 Bft)
01.08.2021 06:58 11,8 C 11,1 C 15,0 C 15,6 C 15,6 C 95 % 5 lf 55 cb 200 cb 101 cb 49 cb 1009,5 hPa 0,0 l/m 0,0 km/h (0 Bft) W-SW 241 0 min 0,000 mm 0,0 UV-I 16 W/m 11,0 C 11,8 C 0,0 km/h (0 Bft)
01.08.2021 06:56 11,8 C 11,1 C 15,0 C 15,6 C 15,6 C 95 % 6 lf 55 cb 200 cb 101 cb 49 cb 1009,5 hPa 0,0 l/m 0,0 km/h (0 Bft) W-SW 241 0 min 0,000 mm 0,0 UV-I 14 W/m 11,0 C 11,8 C 0,0 km/h (0 Bft)
01.08.2021 06:54 11,8 C 11,1 C 15,0 C 15,6 C 15,6 C 95 % 6 lf 55 cb 200 cb 101 cb 49 cb 1009,5 hPa 0,0 l/m 0,1 km/h (0 Bft) W-SW 241 0 min 0,000 mm 0,0 UV-I 12 W/m 11,0 C 11,8 C 1,6 km/h (1 Bft)
01.08.2021 06:52 11,9 C 11,1 C 15,0 C 15,6 C 15,6 C 95 % 7 lf 55 cb 200 cb 101 cb 49 cb 1009,5 hPa 0,0 l/m 0,0 km/h (0 Bft) W-SW 241 0 min 0,000 mm 0,0 UV-I 12 W/m 11,1 C 11,9 C 0,0 km/h (0 Bft)
01.08.2021 06:50 11,9 C 11,1 C 15,0 C 15,6 C 15,6 C 95 % 7 lf 55 cb 200 cb 101 cb 49 cb 1009,5 hPa 0,0 l/m 0,4 km/h (0 Bft) W-SW 241 0 min 0,000 mm 0,0 UV-I 11 W/m 11,1 C 11,9 C 4,8 km/h (1 Bft)
01.08.2021 06:48 11,9 C 11,1 C 15,0 C 15,6 C 15,6 C 95 % 7 lf 55 cb 200 cb 101 cb 49 cb 1009,6 hPa 0,0 l/m 1,3 km/h (1 Bft) W-SW 241 0 min 0,000 mm 0,0 UV-I 11 W/m 11,1 C 11,9 C 6,4 km/h (2 Bft)
01.08.2021 06:46 11,9 C 11,1 C 15,0 C 15,6 C 15,6 C 95 % 7 lf 55 cb 200 cb 101 cb 49 cb 1009,5 hPa 0,0 l/m 0,0 km/h (0 Bft) W-SW 241 0 min 0,000 mm 0,0 UV-I 9 W/m 11,1 C 11,9 C 0,0 km/h (0 Bft)
01.08.2021 06:44 11,9 C 11,1 C 15,0 C 15,6 C 15,6 C 95 % 7 lf 55 cb 200 cb 101 cb 49 cb 1009,6 hPa 0,0 l/m 2,8 km/h (1 Bft) W-SW 241 0 min 0,000 mm 0,0 UV-I 7 W/m 11,1 C 11,9 C 11,3 km/h (2 Bft)
01.08.2021 06:42 11,9 C 11,1 C 15,0 C 15,6 C 15,6 C 95 % 8 lf 55 cb 200 cb 101 cb 49 cb 1009,6 hPa 0,0 l/m 0,0 km/h (0 Bft) W-SW 248 0 min 0,000 mm 0,0 UV-I 7 W/m 11,1 C 11,9 C 0,0 km/h (0 Bft)
01.08.2021 06:40 12,0 C 11,1 C 15,0 C 15,6 C 15,6 C 95 % 8 lf 55 cb 200 cb 101 cb 49 cb 1009,6 hPa 0,0 l/m 0,0 km/h (0 Bft) W-SW 248 0 min 0,000 mm 0,0 UV-I 7 W/m 11,2 C 12,0 C 0,0 km/h (0 Bft)
01.08.2021 06:38 12,0 C 11,1 C 15,0 C 15,6 C 15,6 C 95 % 9 lf 55 cb 200 cb 101 cb 49 cb 1009,7 hPa 0,0 l/m 1,7 km/h (1 Bft) W-SW 248 0 min 0,000 mm 0,0 UV-I 7 W/m 11,2 C 12,0 C 9,7 km/h (2 Bft)
01.08.2021 06:36 12,0 C 11,1 C 15,0 C 15,6 C 15,6 C 95 % 9 lf 55 cb 200 cb 101 cb 49 cb 1009,7 hPa 0,0 l/m 1,4 km/h (1 Bft) W-SW 250 0 min 0,000 mm 0,0 UV-I 7 W/m 11,2 C 12,0 C 8,0 km/h (2 Bft)
01.08.2021 06:34 12,1 C 11,1 C 15,0 C 15,6 C 15,6 C 95 % 9 lf 55 cb 200 cb 101 cb 49 cb 1009,7 hPa 0,0 l/m 1,2 km/h (1 Bft) W-SW 244 0 min 0,000 mm 0,0 UV-I 7 W/m 11,3 C 12,1 C 6,4 km/h (2 Bft)
01.08.2021 06:32 12,1 C 11,1 C 15,0 C 15,6 C 15,6 C 95 % 10 lf 55 cb 200 cb 101 cb 49 cb 1009,7 hPa 0,0 l/m 5,2 km/h (1 Bft) W-SW 240 0 min 0,000 mm 0,0 UV-I 7 W/m 11,3 C 12,1 C 11,3 km/h (2 Bft)
01.08.2021 06:30 12,1 C 11,1 C 15,0 C 15,6 C 15,6 C 95 % 10 lf 55 cb 200 cb 101 cb 49 cb 1009,7 hPa 0,0 l/m 3,4 km/h (1 Bft) W-SW 247 0 min 0,000 mm 0,0 UV-I 9 W/m 11,3 C 12,1 C 9,7 km/h (2 Bft)
01.08.2021 06:28 12,1 C 11,1 C 15,0 C 15,6 C 15,6 C 95 % 10 lf 55 cb 200 cb 101 cb 49 cb 1009,6 hPa 0,0 l/m 1,6 km/h (1 Bft) W-SW 248 0 min 0,000 mm 0,0 UV-I 9 W/m 11,3 C 12,1 C 9,7 km/h (2 Bft)
01.08.2021 06:26 12,2 C 11,1 C 15,0 C 15,6 C 15,6 C 95 % 10 lf 55 cb 200 cb 101 cb 49 cb 1009,6 hPa 0,0 l/m 4,3 km/h (1 Bft) W-SW 250 0 min 0,000 mm 0,0 UV-I 7 W/m 11,4 C 12,2 C 12,9 km/h (3 Bft)
01.08.2021 06:24 12,2 C 11,7 C 15,0 C 15,6 C 15,6 C 95 % 11 lf 56 cb 200 cb 102 cb 49 cb 1009,6 hPa 0,0 l/m 2,3 km/h (1 Bft) W 266 0 min 0,000 mm 0,0 UV-I 7 W/m 11,4 C 12,2 C 16,1 km/h (3 Bft)
01.08.2021 06:22 12,2 C 11,7 C 15,0 C 15,6 C 15,6 C 95 % 11 lf 56 cb 200 cb 102 cb 49 cb 1009,7 hPa 0,0 l/m 0,3 km/h (0 Bft) W-SW 242 0 min 0,000 mm 0,0 UV-I 7 W/m 11,4 C 12,2 C 4,8 km/h (1 Bft)
01.08.2021 06:20 12,2 C 11,7 C 15,0 C 15,6 C 15,6 C 95 % 11 lf 56 cb 200 cb 102 cb 49 cb 1009,7 hPa 0,0 l/m 0,7 km/h (0 Bft) W-SW 242 0 min 0,000 mm 0,0 UV-I 5 W/m 11,4 C 12,2 C 8,0 km/h (2 Bft)
01.08.2021 06:18 12,2 C 11,7 C 15,0 C 15,6 C 15,6 C 95 % 11 lf 56 cb 200 cb 102 cb 49 cb 1009,7 hPa 0,0 l/m 3,7 km/h (1 Bft) W-SW 243 0 min 0,000 mm 0,0 UV-I 5 W/m 11,4 C 12,2 C 8,0 km/h (2 Bft)
01.08.2021 06:16 12,2 C 11,7 C 15,0 C 15,6 C 15,6 C 95 % 12 lf 56 cb 200 cb 102 cb 49 cb 1009,7 hPa 0,0 l/m 3,4 km/h (1 Bft) W-SW 247 0 min 0,000 mm 0,0 UV-I 0 W/m 11,4 C 12,2 C 9,7 km/h (2 Bft)
01.08.2021 06:14 12,2 C 11,7 C 15,0 C 15,6 C 15,6 C 95 % 12 lf 56 cb 200 cb 102 cb 49 cb 1009,7 hPa 0,0 l/m 2,7 km/h (1 Bft) W-SW 249 0 min 0,000 mm 0,0 UV-I 0 W/m 11,4 C 12,2 C 9,7 km/h (2 Bft)
01.08.2021 06:12 12,2 C 11,7 C 15,0 C 15,6 C 16,1 C 95 % 12 lf 56 cb 200 cb 102 cb 49 cb 1009,7 hPa 0,0 l/m 0,4 km/h (0 Bft) W-SW 252 0 min 0,000 mm 0,0 UV-I 0 W/m 11,4 C 12,2 C 4,8 km/h (1 Bft)
01.08.2021 06:10 12,2 C 11,7 C 15,0 C 15,6 C 16,1 C 95 % 12 lf 56 cb 200 cb 102 cb 49 cb 1009,6 hPa 0,0 l/m 0,0 km/h (0 Bft) W-SW 252 0 min 0,000 mm 0,0 UV-I 0 W/m 11,4 C 12,2 C 0,0 km/h (0 Bft)
01.08.2021 06:08 12,2 C 11,7 C 15,0 C 15,6 C 16,1 C 95 % 13 lf 56 cb 200 cb 102 cb 49 cb 1009,7 hPa 0,0 l/m 1,7 km/h (1 Bft) W-SW 252 0 min 0,000 mm 0,0 UV-I 0 W/m 11,4 C 12,2 C 8,0 km/h (2 Bft)
01.08.2021 06:06 12,2 C 11,7 C 15,0 C 15,6 C 16,1 C 95 % 13 lf 56 cb 200 cb 102 cb 49 cb 1009,7 hPa 0,0 l/m 1,2 km/h (1 Bft) W-SW 254 0 min 0,000 mm 0,0 UV-I 0 W/m 11,4 C 12,2 C 8,0 km/h (2 Bft)
01.08.2021 06:04 12,1 C 11,7 C 15,0 C 15,6 C 16,1 C 95 % 13 lf 56 cb 200 cb 102 cb 49 cb 1009,7 hPa 0,0 l/m 1,1 km/h (1 Bft) W-SW 255 0 min 0,000 mm 0,0 UV-I 0 W/m 11,3 C 12,1 C 9,7 km/h (2 Bft)
01.08.2021 06:02 12,1 C 11,1 C 15,0 C 15,6 C 16,1 C 95 % 13 lf 56 cb 200 cb 102 cb 49 cb 1009,7 hPa 0,0 l/m 2,6 km/h (1 Bft) W-SW 258 0 min 0,000 mm 0,0 UV-I 0 W/m 11,3 C 12,1 C 8,0 km/h (2 Bft)
01.08.2021 06:00 12,1 C 11,1 C 15,0 C 15,6 C 16,1 C 95 % 13 lf 56 cb 200 cb 102 cb 49 cb 1009,7 hPa 0,0 l/m 1,1 km/h (1 Bft) W-SW 258 0 min 0,000 mm 0,0 UV-I 0 W/m 11,3 C 12,1 C 8,0 km/h (2 Bft)
01.08.2021 05:58 12,1 C 11,1 C 15,0 C 15,6 C 16,1 C 95 % 13 lf 56 cb 200 cb 102 cb 49 cb 1009,7 hPa 0,0 l/m 2,5 km/h (1 Bft) W-SW 258 0 min 0,000 mm 0,0 UV-I 0 W/m 11,3 C 12,1 C 9,7 km/h (2 Bft)
01.08.2021 05:56 12,1 C 11,1 C 15,0 C 15,6 C 16,1 C 95 % 13 lf 56 cb 200 cb 102 cb 49 cb 1009,7 hPa 0,0 l/m 2,2 km/h (1 Bft) W-SW 257 0 min 0,000 mm 0,0 UV-I 0 W/m 11,3 C 12,1 C 8,0 km/h (2 Bft)
01.08.2021 05:54 12,1 C 11,1 C 15,0 C 15,6 C 16,1 C 95 % 12 lf 56 cb 200 cb 102 cb 49 cb 1009,7 hPa 0,0 l/m 0,0 km/h (0 Bft) W-SW 257 0 min 0,000 mm 0,0 UV-I 0 W/m 11,3 C 12,1 C 1,6 km/h (1 Bft)
01.08.2021 05:52 12,1 C 11,1 C 15,0 C 15,6 C 16,1 C 95 % 12 lf 56 cb 200 cb 102 cb 49 cb 1009,7 hPa 0,0 l/m 0,0 km/h (0 Bft) W-SW 257 0 min 0,000 mm 0,0 UV-I 0 W/m 11,3 C 12,1 C 0,0 km/h (0 Bft)
01.08.2021 05:50 12,1 C 11,1 C 15,0 C 15,6 C 16,1 C 95 % 12 lf 56 cb 200 cb 102 cb 49 cb 1009,6 hPa 0,0 l/m 0,1 km/h (0 Bft) W-SW 257 0 min 0,000 mm 0,0 UV-I 0 W/m 11,3 C 12,1 C 1,6 km/h (1 Bft)
01.08.2021 05:48 12,2 C 11,1 C 15,0 C 15,6 C 16,1 C 95 % 12 lf 56 cb 200 cb 102 cb 49 cb 1009,7 hPa 0,0 l/m 0,9 km/h (0 Bft) W-SW 257 0 min 0,000 mm 0,0 UV-I 0 W/m 11,4 C 12,2 C 9,7 km/h (2 Bft)
01.08.2021 05:46 12,2 C 10,6 C 15,0 C 15,6 C 16,1 C 95 % 12 lf 55 cb 200 cb 102 cb 49 cb 1009,8 hPa 0,0 l/m 2,7 km/h (1 Bft) W-SW 257 0 min 0,000 mm 0,0 UV-I 0 W/m 11,4 C 12,2 C 11,3 km/h (2 Bft)
01.08.2021 05:44 12,2 C 10,6 C 15,0 C 15,6 C 16,1 C 95 % 11 lf 55 cb 200 cb 102 cb 49 cb 1009,7 hPa 0,0 l/m 0,1 km/h (0 Bft) W 259 0 min 0,000 mm 0,0 UV-I 0 W/m 11,4 C 12,2 C 1,6 km/h (1 Bft)
01.08.2021 05:42 12,2 C 10,6 C 15,0 C 15,6 C 16,1 C 95 % 11 lf 55 cb 200 cb 102 cb 49 cb 1009,5 hPa 0,0 l/m 0,7 km/h (0 Bft) W 259 0 min 0,000 mm 0,0 UV-I 0 W/m 11,4 C 12,2 C 6,4 km/h (2 Bft)
01.08.2021 05:40 12,2 C 10,6 C 15,0 C 15,6 C 16,1 C 95 % 11 lf 55 cb 200 cb 102 cb 49 cb 1009,5 hPa 0,0 l/m 3,2 km/h (1 Bft) W-SW 258 0 min 0,000 mm 0,0 UV-I 0 W/m 11,4 C 12,2 C 14,5 km/h (3 Bft)
01.08.2021 05:38 12,2 C 10,6 C 15,0 C 15,6 C 16,1 C 95 % 10 lf 55 cb 200 cb 102 cb 49 cb 1009,6 hPa 0,0 l/m 0,5 km/h (0 Bft) W-SW 254 0 min 0,000 mm 0,0 UV-I 0 W/m 11,4 C 12,2 C 9,7 km/h (2 Bft)
01.08.2021 05:36 12,2 C 10,6 C 15,0 C 15,6 C 16,1 C 95 % 10 lf 56 cb 200 cb 102 cb 49 cb 1009,7 hPa 0,0 l/m 1,9 km/h (1 Bft) W-SW 254 0 min 0,000 mm 0,0 UV-I 0 W/m 11,4 C 12,2 C 9,7 km/h (2 Bft)
01.08.2021 05:34 12,2 C 10,6 C 15,0 C 15,6 C 16,1 C 95 % 10 lf 55 cb 200 cb 102 cb 49 cb 1009,6 hPa 0,0 l/m 2,8 km/h (1 Bft) W-SW 249 0 min 0,000 mm 0,0 UV-I 0 W/m 11,4 C 12,2 C 8,0 km/h (2 Bft)
01.08.2021 05:32 12,3 C 10,6 C 15,0 C 15,6 C 16,1 C 94 % 9 lf 56 cb 200 cb 102 cb 49 cb 1009,6 hPa 0,0 l/m 2,2 km/h (1 Bft) W-SW 249 0 min 0,000 mm 0,0 UV-I 0 W/m 11,4 C 12,3 C 11,3 km/h (2 Bft)
01.08.2021 05:30 12,3 C 10,6 C 15,0 C 15,6 C 16,1 C 94 % 9 lf 56 cb 200 cb 102 cb 49 cb 1009,7 hPa 0,0 l/m 1,2 km/h (1 Bft) W-SW 249 0 min 0,000 mm 0,0 UV-I 0 W/m 11,4 C 12,3 C 11,3 km/h (2 Bft)
01.08.2021 05:28 12,3 C 10,6 C 15,0 C 15,6 C 16,1 C 94 % 8 lf 56 cb 200 cb 103 cb 49 cb 1009,7 hPa 0,0 l/m 3,3 km/h (1 Bft) W-SW 257 0 min 0,000 mm 0,0 UV-I 0 W/m 11,4 C 12,3 C 9,7 km/h (2 Bft)
01.08.2021 05:26 12,3 C 10,6 C 15,0 C 15,6 C 16,1 C 94 % 7 lf 56 cb 200 cb 103 cb 49 cb 1009,5 hPa 0,0 l/m 4,9 km/h (1 Bft) W-SW 257 0 min 0,000 mm 0,0 UV-I 0 W/m 11,4 C 12,3 C 11,3 km/h (2 Bft)
01.08.2021 05:24 12,4 C 10,6 C 15,0 C 15,6 C 16,1 C 94 % 7 lf 55 cb 200 cb 103 cb 49 cb 1009,6 hPa 0,0 l/m 2,5 km/h (1 Bft) W 259 0 min 0,000 mm 0,0 UV-I 0 W/m 11,5 C 12,4 C 8,0 km/h (2 Bft)
01.08.2021 05:22 12,4 C 10,6 C 15,0 C 15,6 C 16,1 C 94 % 6 lf 55 cb 200 cb 103 cb 49 cb 1009,6 hPa 0,0 l/m 0,6 km/h (0 Bft) W 260 0 min 0,000 mm 0,0 UV-I 0 W/m 11,5 C 12,4 C 6,4 km/h (2 Bft)
01.08.2021 05:20 12,4 C 10,6 C 15,0 C 15,6 C 16,1 C 94 % 5 lf 55 cb 200 cb 103 cb 49 cb 1009,5 hPa 0,0 l/m 1,8 km/h (1 Bft) W 260 0 min 0,000 mm 0,0 UV-I 0 W/m 11,5 C 12,4 C 8,0 km/h (2 Bft)
01.08.2021 05:18 12,5 C 11,1 C 15,0 C 15,6 C 16,1 C 94 % 4 lf 56 cb 200 cb 103 cb 49 cb 1009,5 hPa 0,0 l/m 0,1 km/h (0 Bft) W 259 0 min 0,000 mm 0,0 UV-I 0 W/m 11,6 C 12,5 C 3,2 km/h (1 Bft)
01.08.2021 05:16 12,5 C 11,1 C 15,0 C 15,6 C 16,1 C 94 % 4 lf 56 cb 200 cb 103 cb 49 cb 1009,5 hPa 0,0 l/m 2,5 km/h (1 Bft) W 259 0 min 0,000 mm 0,0 UV-I 0 W/m 11,6 C 12,5 C 8,0 km/h (2 Bft)
01.08.2021 05:14 12,6 C 11,1 C 15,0 C 15,6 C 16,1 C 94 % 4 lf 56 cb 200 cb 103 cb 49 cb 1009,7 hPa 0,0 l/m 0,0 km/h (0 Bft) W 259 0 min 0,000 mm 0,0 UV-I 0 W/m 11,7 C 12,6 C 0,0 km/h (0 Bft)
01.08.2021 05:12 12,6 C 11,1 C 15,0 C 15,6 C 16,1 C 94 % 4 lf 56 cb 200 cb 103 cb 49 cb 1009,6 hPa 0,0 l/m 0,0 km/h (0 Bft) W 259 0 min 0,000 mm 0,0 UV-I 0 W/m 11,7 C 12,6 C 0,0 km/h (0 Bft)
01.08.2021 05:10 12,6 C 11,1 C 15,0 C 15,6 C 16,1 C 94 % 3 lf 56 cb 200 cb 103 cb 49 cb 1009,6 hPa 0,0 l/m 0,1 km/h (0 Bft) W 259 0 min 0,000 mm 0,0 UV-I 0 W/m 11,7 C 12,6 C 3,2 km/h (1 Bft)
01.08.2021 05:08 12,6 C 11,1 C 15,0 C 15,6 C 16,1 C 94 % 3 lf 56 cb 200 cb 103 cb 49 cb 1009,7 hPa 0,0 l/m 0,0 km/h (0 Bft) W 259 0 min 0,000 mm 0,0 UV-I 0 W/m 11,7 C 12,6 C 1,6 km/h (1 Bft)
01.08.2021 05:06 12,7 C 11,1 C 15,0 C 15,6 C 16,1 C 94 % 3 lf 56 cb 200 cb 103 cb 49 cb 1009,7 hPa 0,0 l/m 0,0 km/h (0 Bft) W 259 0 min 0,000 mm 0,0 UV-I 0 W/m 11,8 C 12,7 C 0,0 km/h (0 Bft)
01.08.2021 05:04 12,7 C 11,1 C 15,0 C 15,6 C 16,1 C 94 % 3 lf 56 cb 200 cb 103 cb 49 cb 1009,7 hPa 0,0 l/m 0,3 km/h (0 Bft) W 259 0 min 0,000 mm 0,0 UV-I 0 W/m 11,8 C 12,7 C 3,2 km/h (1 Bft)
01.08.2021 05:02 12,8 C 11,1 C 15,0 C 15,6 C 16,1 C 94 % 3 lf 56 cb 200 cb 103 cb 49 cb 1009,7 hPa 0,0 l/m 1,3 km/h (1 Bft) W 259 0 min 0,000 mm 0,0 UV-I 0 W/m 11,9 C 12,8 C 9,7 km/h (2 Bft)
01.08.2021 05:00 12,8 C 11,1 C 15,0 C 15,6 C 16,1 C 94 % 3 lf 56 cb 200 cb 103 cb 49 cb 1009,7 hPa 0,0 l/m 1,9 km/h (1 Bft) W 261 0 min 0,000 mm 0,0 UV-I 0 W/m 11,9 C 12,8 C 11,3 km/h (2 Bft)
01.08.2021 04:58 12,8 C 11,7 C 15,0 C 15,6 C 16,1 C 94 % 2 lf 56 cb 200 cb 103 cb 49 cb 1009,6 hPa 0,0 l/m 0,5 km/h (0 Bft) W 263 0 min 0,000 mm 0,0 UV-I 0 W/m 11,9 C 12,8 C 3,2 km/h (1 Bft)
01.08.2021 04:56 12,9 C 11,7 C 15,0 C 15,6 C 16,1 C 94 % 2 lf 56 cb 200 cb 103 cb 49 cb 1009,6 hPa 0,0 l/m 3,0 km/h (1 Bft) W 263 0 min 0,000 mm 0,0 UV-I 0 W/m 12,0 C 12,9 C 11,3 km/h (2 Bft)
01.08.2021 04:54 12,9 C 11,7 C 15,0 C 15,6 C 16,1 C 94 % 2 lf 56 cb 200 cb 103 cb 49 cb 1009,5 hPa 0,0 l/m 0,3 km/h (0 Bft) W 259 0 min 0,000 mm 0,0 UV-I 0 W/m 12,0 C 12,9 C 3,2 km/h (1 Bft)
01.08.2021 04:52 12,9 C 11,7 C 15,0 C 15,6 C 16,1 C 94 % 2 lf 56 cb 200 cb 103 cb 49 cb 1009,5 hPa 0,0 l/m 2,0 km/h (1 Bft) W 259 0 min 0,000 mm 0,0 UV-I 0 W/m 12,0 C 12,9 C 9,7 km/h (2 Bft)
01.08.2021 04:50 12,9 C 11,7 C 15,0 C 15,6 C 16,1 C 94 % 2 lf 56 cb 200 cb 103 cb 49 cb 1009,5 hPa 0,0 l/m 0,5 km/h (0 Bft) W 260 0 min 0,000 mm 0,0 UV-I 0 W/m 12,0 C 12,9 C 6,4 km/h (2 Bft)
01.08.2021 04:48 13,0 C 11,7 C 15,0 C 15,6 C 16,1 C 94 % 2 lf 56 cb 200 cb 103 cb 49 cb 1009,6 hPa 0,0 l/m 5,5 km/h (1 Bft) W 260 0 min 0,000 mm 0,0 UV-I 0 W/m 12,1 C 13,0 C 14,5 km/h (3 Bft)
01.08.2021 04:46 13,0 C 11,7 C 15,0 C 15,6 C 16,1 C 94 % 1 lf 56 cb 200 cb 103 cb 49 cb 1009,7 hPa 0,0 l/m 2,5 km/h (1 Bft) W 265 0 min 0,000 mm 0,0 UV-I 0 W/m 12,1 C 13,0 C 8,0 km/h (2 Bft)
01.08.2021 04:44 13,0 C 12,2 C 15,0 C 15,6 C 16,1 C 94 % 1 lf 57 cb 200 cb 103 cb 49 cb 1009,7 hPa 0,0 l/m 3,6 km/h (1 Bft) W 268 0 min 0,000 mm 0,0 UV-I 0 W/m 12,1 C 13,0 C 11,3 km/h (2 Bft)
01.08.2021 04:42 13,0 C 12,2 C 15,0 C 15,6 C 16,1 C 94 % 1 lf 57 cb 200 cb 103 cb 49 cb 1009,7 hPa 0,0 l/m 2,3 km/h (1 Bft) W 264 0 min 0,000 mm 0,0 UV-I 0 W/m 12,1 C 13,0 C 9,7 km/h (2 Bft)
01.08.2021 04:40 13,0 C 12,2 C 15,0 C 15,6 C 16,1 C 94 % 1 lf 57 cb 200 cb 103 cb 49 cb 1009,7 hPa 0,0 l/m 5,3 km/h (1 Bft) W 271 0 min 0,000 mm 0,0 UV-I 0 W/m 12,1 C 13,0 C 14,5 km/h (3 Bft)
01.08.2021 04:38 13,0 C 11,7 C 15,0 C 15,6 C 16,1 C 94 % 1 lf 56 cb 200 cb 103 cb 49 cb 1009,7 hPa 0,0 l/m 4,6 km/h (1 Bft) W 280 0 min 0,000 mm 0,0 UV-I 0 W/m 12,1 C 13,0 C 12,9 km/h (3 Bft)
01.08.2021 04:36 13,0 C 11,7 C 15,0 C 15,6 C 16,1 C 94 % 1 lf 56 cb 200 cb 103 cb 49 cb 1009,8 hPa 0,0 l/m 4,5 km/h (1 Bft) W 275 0 min 0,000 mm 0,0 UV-I 0 W/m 12,1 C 13,0 C 14,5 km/h (3 Bft)
01.08.2021 04:34 12,9 C 11,7 C 15,0 C 15,6 C 16,1 C 94 % 1 lf 56 cb 200 cb 103 cb 49 cb 1009,7 hPa 0,0 l/m 3,7 km/h (1 Bft) W 263 0 min 0,000 mm 0,0 UV-I 0 W/m 12,0 C 12,9 C 11,3 km/h (2 Bft)
01.08.2021 04:32 12,9 C 11,7 C 15,0 C 15,6 C 16,1 C 94 % 1 lf 56 cb 200 cb 104 cb 49 cb 1009,7 hPa 0,0 l/m 5,2 km/h (1 Bft) W 262 0 min 0,000 mm 0,0 UV-I 0 W/m 12,0 C 12,9 C 12,9 km/h (3 Bft)
01.08.2021 04:30 12,9 C 11,7 C 15,0 C 15,6 C 16,1 C 94 % 1 lf 56 cb 200 cb 104 cb 49 cb 1009,8 hPa 0,0 l/m 3,2 km/h (1 Bft) W 271 0 min 0,000 mm 0,0 UV-I 0 W/m 12,0 C 12,9 C 9,7 km/h (2 Bft)
01.08.2021 04:28 13,0 C 11,7 C 15,0 C 15,6 C 16,1 C 94 % 1 lf 56 cb 200 cb 104 cb 49 cb 1009,8 hPa 0,0 l/m 5,5 km/h (1 Bft) W 267 0 min 0,000 mm 0,0 UV-I 0 W/m 12,1 C 13,0 C 12,9 km/h (3 Bft)
01.08.2021 04:26 13,0 C 11,7 C 15,0 C 15,6 C 16,1 C 94 % 1 lf 56 cb 200 cb 104 cb 49 cb 1009,8 hPa 0,0 l/m 1,0 km/h (0 Bft) W 274 0 min 0,000 mm 0,0 UV-I 0 W/m 12,1 C 13,0 C 8,0 km/h (2 Bft)
01.08.2021 04:24 13,0 C 11,7 C 15,0 C 15,6 C 16,1 C 94 % 1 lf 56 cb 200 cb 104 cb 49 cb 1009,9 hPa 0,0 l/m 3,9 km/h (1 Bft) W 277 0 min 0,000 mm 0,0 UV-I 0 W/m 12,1 C 13,0 C 9,7 km/h (2 Bft)
01.08.2021 04:22 13,0 C 11,7 C 15,0 C 15,6 C 16,1 C 94 % 1 lf 56 cb 200 cb 104 cb 49 cb 1009,9 hPa 0,0 l/m 2,2 km/h (1 Bft) W 278 0 min 0,000 mm 0,0 UV-I 0 W/m 12,1 C 13,0 C 9,7 km/h (2 Bft)
01.08.2021 04:20 13,1 C 11,7 C 15,0 C 15,6 C 16,1 C 94 % 1 lf 57 cb 200 cb 104 cb 49 cb 1009,9 hPa 0,0 l/m 0,7 km/h (0 Bft) W 280 0 min 0,000 mm 0,0 UV-I 0 W/m 12,2 C 13,1 C 4,8 km/h (1 Bft)
01.08.2021 04:18 13,1 C 11,7 C 15,0 C 15,6 C 16,1 C 94 % 1 lf 57 cb 200 cb 104 cb 49 cb 1009,9 hPa 0,0 l/m 1,4 km/h (1 Bft) W 280 0 min 0,000 mm 0,0 UV-I 0 W/m 12,2 C 13,1 C 8,0 km/h (2 Bft)
01.08.2021 04:17 13,1 C 11,7 C 15,0 C 15,6 C 16,1 C 94 % 1 lf 57 cb 200 cb 104 cb 49 cb 1009,8 hPa 0,0 l/m 2,7 km/h (1 Bft) W 280 0 min 0,000 mm 0,0 UV-I 0 W/m 12,2 C 13,1 C 8,0 km/h (2 Bft)
01.08.2021 04:16 13,1 C 11,7 C 15,0 C 15,6 C 16,1 C 94 % 1 lf 57 cb 200 cb 104 cb 49 cb 1009,8 hPa 0,0 l/m 1,4 km/h (1 Bft) W 281 0 min 0,000 mm 0,0 UV-I 0 W/m 12,2 C 13,1 C 8,0 km/h (2 Bft)
01.08.2021 04:14 13,1 C 11,7 C 15,0 C 15,6 C 16,1 C 94 % 1 lf 57 cb 200 cb 104 cb 49 cb 1009,8 hPa 0,0 l/m 2,2 km/h (1 Bft) W 281 0 min 0,000 mm 0,0 UV-I 0 W/m 12,2 C 13,1 C 8,0 km/h (2 Bft)
01.08.2021 04:12 13,1 C 11,7 C 15,0 C 15,6 C 16,1 C 94 % 1 lf 57 cb 200 cb 104 cb 49 cb 1009,7 hPa 0,0 l/m 1,2 km/h (1 Bft) W 281 0 min 0,000 mm 0,0 UV-I 0 W/m 12,2 C 13,1 C 6,4 km/h (2 Bft)
01.08.2021 04:10 13,1 C 12,2 C 15,0 C 15,6 C 16,1 C 94 % 1 lf 57 cb 200 cb 104 cb 49 cb 1009,8 hPa 0,0 l/m 3,1 km/h (1 Bft) W 281 0 min 0,000 mm 0,0 UV-I 0 W/m 12,2 C 13,1 C 8,0 km/h (2 Bft)
01.08.2021 04:08 13,1 C 12,2 C 15,0 C 15,6 C 16,1 C 94 % 1 lf 57 cb 200 cb 105 cb 49 cb 1009,8 hPa 0,0 l/m 0,8 km/h (0 Bft) W-NW 286 0 min 0,000 mm 0,0 UV-I 0 W/m 12,2 C 13,1 C 4,8 km/h (1 Bft)
01.08.2021 04:06 13,1 C 12,2 C 15,0 C 15,6 C 16,1 C 94 % 1 lf 57 cb 200 cb 105 cb 49 cb 1009,8 hPa 0,0 l/m 1,3 km/h (1 Bft) W-NW 286 0 min 0,000 mm 0,0 UV-I 0 W/m 12,2 C 13,1 C 8,0 km/h (2 Bft)
01.08.2021 04:04 13,1 C 12,2 C 15,0 C 16,1 C 16,1 C 94 % 1 lf 57 cb 200 cb 106 cb 49 cb 1009,8 hPa 0,0 l/m 2,2 km/h (1 Bft) W-NW 286 0 min 0,000 mm 0,0 UV-I 0 W/m 12,2 C 13,1 C 8,0 km/h (2 Bft)
01.08.2021 04:02 13,1 C 12,2 C 15,0 C 16,1 C 16,1 C 94 % 1 lf 57 cb 200 cb 106 cb 49 cb 1009,8 hPa 0,0 l/m 6,7 km/h (2 Bft) W-NW 286 0 min 0,000 mm 0,0 UV-I 0 W/m 12,2 C 12,9 C 16,1 km/h (3 Bft)
01.08.2021 04:00 13,1 C 12,2 C 15,0 C 16,1 C 16,1 C 94 % 1 lf 57 cb 200 cb 106 cb 49 cb 1009,8 hPa 0,0 l/m 2,8 km/h (1 Bft) W 275 0 min 0,000 mm 0,0 UV-I 0 W/m 12,2 C 13,1 C 8,0 km/h (2 Bft)
01.08.2021 03:58 13,1 C 12,2 C 15,0 C 16,1 C 16,1 C 94 % 1 lf 57 cb 200 cb 106 cb 49 cb 1009,7 hPa 0,0 l/m 3,9 km/h (1 Bft) W 275 0 min 0,000 mm 0,0 UV-I 0 W/m 12,2 C 13,1 C 9,7 km/h (2 Bft)
01.08.2021 03:56 13,1 C 12,2 C 15,0 C 16,1 C 16,1 C 94 % 1 lf 57 cb 200 cb 106 cb 49 cb 1009,7 hPa 0,0 l/m 4,1 km/h (1 Bft) W 266 0 min 0,000 mm 0,0 UV-I 0 W/m 12,2 C 13,1 C 11,3 km/h (2 Bft)
01.08.2021 03:54 13,1 C 12,2 C 15,0 C 16,1 C 16,1 C 94 % 1 lf 57 cb 200 cb 106 cb 49 cb 1009,8 hPa 0,0 l/m 4,8 km/h (1 Bft) W 269 0 min 0,000 mm 0,0 UV-I 0 W/m 12,2 C 13,1 C 11,3 km/h (2 Bft)
01.08.2021 03:52 13,1 C 12,2 C 15,6 C 16,1 C 16,1 C 94 % 1 lf 57 cb 200 cb 106 cb 49 cb 1009,8 hPa 0,0 l/m 2,2 km/h (1 Bft) W 270 0 min 0,000 mm 0,0 UV-I 0 W/m 12,2 C 13,1 C 8,0 km/h (2 Bft)
01.08.2021 03:50 13,1 C 12,2 C 15,6 C 16,1 C 16,1 C 94 % 1 lf 57 cb 200 cb 106 cb 49 cb 1009,8 hPa 0,0 l/m 2,6 km/h (1 Bft) W 269 0 min 0,000 mm 0,0 UV-I 0 W/m 12,2 C 13,1 C 16,1 km/h (3 Bft)
01.08.2021 03:48 13,1 C 12,2 C 15,6 C 16,1 C 16,1 C 94 % 1 lf 57 cb 200 cb 106 cb 49 cb 1009,8 hPa 0,0 l/m 2,2 km/h (1 Bft) W 270 0 min 0,000 mm 0,0 UV-I 0 W/m 12,2 C 13,1 C 8,0 km/h (2 Bft)
01.08.2021 03:46 13,1 C 12,2 C 15,6 C 16,1 C 16,1 C 94 % 1 lf 57 cb 200 cb 106 cb 49 cb 1009,8 hPa 0,0 l/m 3,4 km/h (1 Bft) W 270 0 min 0,000 mm 0,0 UV-I 0 W/m 12,2 C 13,1 C 9,7 km/h (2 Bft)
01.08.2021 03:44 13,1 C 12,2 C 15,6 C 16,1 C 16,1 C 94 % 1 lf 57 cb 200 cb 106 cb 49 cb 1009,8 hPa 0,0 l/m 4,2 km/h (1 Bft) W 271 0 min 0,000 mm 0,0 UV-I 0 W/m 12,2 C 13,1 C 11,3 km/h (2 Bft)
01.08.2021 03:42 13,1 C 12,2 C 15,6 C 16,1 C 16,1 C 94 % 1 lf 57 cb 200 cb 106 cb 49 cb 1009,8 hPa 0,0 l/m 2,2 km/h (1 Bft) W 270 0 min 0,000 mm 0,0 UV-I 0 W/m 12,2 C 13,1 C 9,7 km/h (2 Bft)
01.08.2021 03:40 13,1 C 12,2 C 15,6 C 16,1 C 16,1 C 94 % 1 lf 57 cb 200 cb 106 cb 49 cb 1009,8 hPa 0,0 l/m 3,9 km/h (1 Bft) W 269 0 min 0,000 mm 0,0 UV-I 0 W/m 12,2 C 13,1 C 9,7 km/h (2 Bft)
01.08.2021 03:38 13,1 C 12,2 C 15,6 C 16,1 C 16,1 C 94 % 1 lf 57 cb 200 cb 106 cb 49 cb 1009,8 hPa 0,0 l/m 2,3 km/h (1 Bft) W 269 0 min 0,000 mm 0,0 UV-I 0 W/m 12,2 C 13,1 C 9,7 km/h (2 Bft)
01.08.2021 03:36 13,1 C 12,2 C 15,6 C 16,1 C 16,1 C 94 % 1 lf 57 cb 200 cb 106 cb 49 cb 1009,8 hPa 0,0 l/m 1,8 km/h (1 Bft) W 271 0 min 0,000 mm 0,0 UV-I 0 W/m 12,2 C 13,1 C 9,7 km/h (2 Bft)
01.08.2021 03:34 13,1 C 12,2 C 15,6 C 16,1 C 16,1 C 94 % 1 lf 57 cb 200 cb 106 cb 49 cb 1009,8 hPa 0,0 l/m 2,1 km/h (1 Bft) W 269 0 min 0,000 mm 0,0 UV-I 0 W/m 12,2 C 13,1 C 9,7 km/h (2 Bft)
01.08.2021 03:32 13,1 C 12,2 C 15,6 C 16,1 C 16,1 C 94 % 1 lf 57 cb 200 cb 106 cb 49 cb 1009,8 hPa 0,0 l/m 2,6 km/h (1 Bft) W 269 0 min 0,000 mm 0,0 UV-I 0 W/m 12,2 C 13,1 C 11,3 km/h (2 Bft)
01.08.2021 03:30 13,1 C 12,2 C 15,6 C 16,1 C 16,1 C 94 % 1 lf 57 cb 200 cb 106 cb 49 cb 1009,8 hPa 0,0 l/m 2,0 km/h (1 Bft) W 273 0 min 0,000 mm 0,0 UV-I 0 W/m 12,2 C 13,1 C 6,4 km/h (2 Bft)
01.08.2021 03:28 13,1 C 12,2 C 15,6 C 16,1 C 16,1 C 94 % 0 lf 58 cb 200 cb 106 cb 49 cb 1009,8 hPa 0,0 l/m 1,2 km/h (1 Bft) W 273 0 min 0,000 mm 0,0 UV-I 0 W/m 12,2 C 13,1 C 8,0 km/h (2 Bft)
01.08.2021 03:26 13,1 C 12,2 C 15,6 C 16,1 C 16,1 C 94 % 1 lf 58 cb 200 cb 106 cb 49 cb 1009,8 hPa 0,0 l/m 2,2 km/h (1 Bft) W 273 0 min 0,000 mm 0,0 UV-I 0 W/m 12,2 C 13,1 C 8,0 km/h (2 Bft)
01.08.2021 03:24 13,1 C 12,2 C 15,6 C 16,1 C 16,1 C 94 % 1 lf 58 cb 200 cb 106 cb 49 cb 1009,8 hPa 0,0 l/m 2,8 km/h (1 Bft) W 273 0 min 0,000 mm 0,0 UV-I 0 W/m 12,2 C 13,1 C 8,0 km/h (2 Bft)
01.08.2021 03:22 13,1 C 12,2 C 15,6 C 16,1 C 16,1 C 94 % 1 lf 58 cb 200 cb 106 cb 49 cb 1009,8 hPa 0,0 l/m 3,8 km/h (1 Bft) W 272 0 min 0,000 mm 0,0 UV-I 0 W/m 12,2 C 13,1 C 14,5 km/h (3 Bft)
01.08.2021 03:20 13,1 C 11,7 C 15,6 C 16,1 C 16,1 C 94 % 1 lf 57 cb 200 cb 106 cb 49 cb 1009,8 hPa 0,0 l/m 2,9 km/h (1 Bft) W 272 0 min 0,000 mm 0,0 UV-I 0 W/m 12,2 C 13,1 C 9,7 km/h (2 Bft)
01.08.2021 03:18 13,1 C 11,7 C 15,6 C 16,1 C 16,1 C 94 % 1 lf 57 cb 200 cb 106 cb 49 cb 1009,8 hPa 0,0 l/m 4,4 km/h (1 Bft) W 271 0 min 0,000 mm 0,0 UV-I 0 W/m 12,2 C 13,1 C 11,3 km/h (2 Bft)
01.08.2021 03:16 13,0 C 11,7 C 15,6 C 16,1 C 16,1 C 94 % 1 lf 57 cb 200 cb 107 cb 49 cb 1009,8 hPa 0,0 l/m 1,8 km/h (1 Bft) W 270 0 min 0,000 mm 0,0 UV-I 0 W/m 12,1 C 13,0 C 6,4 km/h (2 Bft)
01.08.2021 03:14 13,0 C 11,7 C 15,6 C 16,1 C 16,1 C 94 % 1 lf 57 cb 200 cb 107 cb 49 cb 1009,8 hPa 0,0 l/m 5,7 km/h (1 Bft) W 270 0 min 0,000 mm 0,0 UV-I 0 W/m 12,1 C 13,0 C 17,7 km/h (3 Bft)
01.08.2021 03:12 13,0 C 11,1 C 15,6 C 16,1 C 16,1 C 94 % 1 lf 57 cb 200 cb 107 cb 49 cb 1009,8 hPa 0,0 l/m 2,3 km/h (1 Bft) W 272 0 min 0,000 mm 0,0 UV-I 0 W/m 12,1 C 13,0 C 9,7 km/h (2 Bft)
01.08.2021 03:10 13,0 C 11,1 C 15,6 C 16,1 C 16,1 C 94 % 1 lf 57 cb 200 cb 107 cb 49 cb 1009,8 hPa 0,0 l/m 4,7 km/h (1 Bft) W 271 0 min 0,000 mm 0,0 UV-I 0 W/m 12,1 C 13,0 C 14,5 km/h (3 Bft)
01.08.2021 03:08 13,0 C 11,1 C 15,6 C 16,1 C 16,1 C 93 % 1 lf 57 cb 200 cb 107 cb 49 cb 1009,8 hPa 0,0 l/m 3,5 km/h (1 Bft) W 271 0 min 0,000 mm 0,0 UV-I 0 W/m 11,9 C 13,0 C 14,5 km/h (3 Bft)
01.08.2021 03:06 13,0 C 11,1 C 15,6 C 16,1 C 16,1 C 93 % 1 lf 57 cb 200 cb 107 cb 49 cb 1009,8 hPa 0,0 l/m 5,1 km/h (1 Bft) W 273 0 min 0,000 mm 0,0 UV-I 0 W/m 11,9 C 13,0 C 14,5 km/h (3 Bft)
01.08.2021 03:04 13,0 C 11,1 C 15,6 C 16,1 C 16,1 C 93 % 2 lf 57 cb 200 cb 107 cb 49 cb 1009,8 hPa 0,0 l/m 2,7 km/h (1 Bft) W 273 0 min 0,000 mm 0,0 UV-I 0 W/m 11,9 C 13,0 C 8,0 km/h (2 Bft)
01.08.2021 03:02 13,0 C 11,1 C 15,6 C 16,1 C 16,1 C 93 % 2 lf 57 cb 200 cb 107 cb 49 cb 1009,8 hPa 0,0 l/m 2,9 km/h (1 Bft) W 273 0 min 0,000 mm 0,0 UV-I 0 W/m 11,9 C 13,0 C 11,3 km/h (2 Bft)
01.08.2021 03:00 13,0 C 11,1 C 15,6 C 16,1 C 16,1 C 93 % 2 lf 57 cb 200 cb 107 cb 49 cb 1009,8 hPa 0,0 l/m 2,6 km/h (1 Bft) W 274 0 min 0,000 mm 0,0 UV-I 0 W/m 11,9 C 13,0 C 6,4 km/h (2 Bft)
01.08.2021 02:58 13,0 C 11,1 C 15,6 C 16,1 C 16,1 C 93 % 2 lf 57 cb 200 cb 107 cb 49 cb 1009,8 hPa 0,0 l/m 1,0 km/h (0 Bft) W 273 0 min 0,000 mm 0,0 UV-I 0 W/m 11,9 C 13,0 C 6,4 km/h (2 Bft)
01.08.2021 02:56 13,0 C 11,1 C 15,6 C 16,1 C 16,1 C 93 % 2 lf 57 cb 200 cb 107 cb 49 cb 1009,8 hPa 0,0 l/m 1,5 km/h (1 Bft) W 273 0 min 0,000 mm 0,0 UV-I 0 W/m 11,9 C 13,0 C 6,4 km/h (2 Bft)
01.08.2021 02:54 13,1 C 11,1 C 15,6 C 16,1 C 16,1 C 93 % 2 lf 57 cb 200 cb 107 cb 49 cb 1009,8 hPa 0,0 l/m 2,6 km/h (1 Bft) W 273 0 min 0,000 mm 0,0 UV-I 0 W/m 12,0 C 13,1 C 6,4 km/h (2 Bft)
01.08.2021 02:52 13,1 C 11,1 C 15,6 C 16,1 C 16,1 C 93 % 2 lf 57 cb 200 cb 107 cb 49 cb 1009,8 hPa 0,0 l/m 2,4 km/h (1 Bft) W 275 0 min 0,000 mm 0,0 UV-I 0 W/m 12,0 C 13,1 C 6,4 km/h (2 Bft)
01.08.2021 02:50 13,1 C 11,1 C 15,6 C 16,1 C 16,1 C 93 % 2 lf 57 cb 200 cb 107 cb 49 cb 1009,8 hPa 0,0 l/m 0,6 km/h (0 Bft) W 276 0 min 0,000 mm 0,0 UV-I 0 W/m 12,0 C 13,1 C 6,4 km/h (2 Bft)
01.08.2021 02:48 13,1 C 11,1 C 15,6 C 16,1 C 16,7 C 93 % 2 lf 57 cb 200 cb 107 cb 49 cb 1009,8 hPa 0,0 l/m 2,5 km/h (1 Bft) W 276 0 min 0,000 mm 0,0 UV-I 0 W/m 12,0 C 13,1 C 11,3 km/h (2 Bft)
01.08.2021 02:46 13,1 C 11,1 C 15,6 C 16,1 C 16,7 C 93 % 1 lf 57 cb 200 cb 107 cb 49 cb 1009,8 hPa 0,0 l/m 2,3 km/h (1 Bft) W 272 0 min 0,000 mm 0,0 UV-I 0 W/m 12,0 C 13,1 C 8,0 km/h (2 Bft)
01.08.2021 02:44 13,1 C 11,1 C 15,6 C 16,1 C 16,7 C 93 % 1 lf 57 cb 200 cb 107 cb 49 cb 1009,8 hPa 0,0 l/m 5,8 km/h (2 Bft) W 272 0 min 0,000 mm 0,0 UV-I 0 W/m 12,0 C 13,1 C 16,1 km/h (3 Bft)
01.08.2021 02:42 13,1 C 11,1 C 15,6 C 16,1 C 16,7 C 93 % 1 lf 57 cb 200 cb 107 cb 49 cb 1009,8 hPa 0,0 l/m 2,8 km/h (1 Bft) W 271 0 min 0,000 mm 0,0 UV-I 0 W/m 12,0 C 13,1 C 11,3 km/h (2 Bft)
01.08.2021 02:40 13,2 C 11,1 C 15,6 C 16,1 C 16,7 C 93 % 1 lf 57 cb 200 cb 107 cb 49 cb 1009,9 hPa 0,0 l/m 1,5 km/h (1 Bft) W 272 0 min 0,000 mm 0,0 UV-I 0 W/m 12,1 C 13,2 C 11,3 km/h (2 Bft)
01.08.2021 02:38 13,2 C 11,1 C 15,6 C 16,1 C 16,7 C 93 % 1 lf 57 cb 200 cb 107 cb 49 cb 1009,9 hPa 0,0 l/m 1,0 km/h (0 Bft) W 276 0 min 0,000 mm 0,0 UV-I 0 W/m 12,1 C 13,2 C 6,4 km/h (2 Bft)
01.08.2021 02:36 13,2 C 11,1 C 15,6 C 16,1 C 16,7 C 93 % 1 lf 57 cb 200 cb 107 cb 49 cb 1009,9 hPa 0,0 l/m 3,3 km/h (1 Bft) W 275 0 min 0,000 mm 0,0 UV-I 0 W/m 12,1 C 13,2 C 9,7 km/h (2 Bft)
01.08.2021 02:34 13,2 C 11,1 C 15,6 C 16,1 C 16,7 C 93 % 1 lf 57 cb 200 cb 107 cb 49 cb 1009,9 hPa 0,0 l/m 3,0 km/h (1 Bft) W 278 0 min 0,000 mm 0,0 UV-I 0 W/m 12,1 C 13,2 C 8,0 km/h (2 Bft)
01.08.2021 02:32 13,2 C 11,1 C 15,6 C 16,1 C 16,7 C 93 % 1 lf 57 cb 200 cb 107 cb 49 cb 1009,9 hPa 0,0 l/m 1,9 km/h (1 Bft) W 275 0 min 0,000 mm 0,0 UV-I 0 W/m 12,1 C 13,2 C 12,9 km/h (3 Bft)
01.08.2021 02:30 13,2 C 11,1 C 15,6 C 16,1 C 16,7 C 93 % 1 lf 57 cb 200 cb 107 cb 49 cb 1009,9 hPa 0,0 l/m 2,2 km/h (1 Bft) W 273 0 min 0,000 mm 0,0 UV-I 0 W/m 12,1 C 13,2 C 9,7 km/h (2 Bft)
01.08.2021 02:28 13,2 C 11,1 C 15,6 C 16,1 C 16,7 C 93 % 1 lf 57 cb 200 cb 107 cb 49 cb 1009,9 hPa 0,0 l/m 2,9 km/h (1 Bft) W 273 0 min 0,000 mm 0,0 UV-I 0 W/m 12,1 C 13,2 C 11,3 km/h (2 Bft)
01.08.2021 02:26 13,2 C 11,1 C 15,6 C 16,1 C 16,7 C 93 % 2 lf 57 cb 200 cb 107 cb 49 cb 1009,9 hPa 0,0 l/m 3,6 km/h (1 Bft) W 273 0 min 0,000 mm 0,0 UV-I 0 W/m 12,1 C 13,2 C 8,0 km/h (2 Bft)
01.08.2021 02:24 13,2 C 11,1 C 15,6 C 16,1 C 16,7 C 93 % 2 lf 57 cb 200 cb 107 cb 49 cb 1009,9 hPa 0,0 l/m 1,5 km/h (1 Bft) W 270 0 min 0,000 mm 0,0 UV-I 0 W/m 12,1 C 13,2 C 8,0 km/h (2 Bft)
01.08.2021 02:22 13,2 C 11,1 C 15,6 C 16,1 C 16,7 C 93 % 2 lf 57 cb 200 cb 107 cb 49 cb 1009,9 hPa 0,0 l/m 1,9 km/h (1 Bft) W 270 0 min 0,000 mm 0,0 UV-I 0 W/m 12,1 C 13,2 C 8,0 km/h (2 Bft)
01.08.2021 02:20 13,2 C 11,1 C 15,6 C 16,1 C 16,7 C 93 % 2 lf 57 cb 200 cb 107 cb 49 cb 1009,9 hPa 0,0 l/m 0,7 km/h (0 Bft) W 269 0 min 0,000 mm 0,0 UV-I 0 W/m 12,1 C 13,2 C 3,2 km/h (1 Bft)
01.08.2021 02:18 13,2 C 11,1 C 15,6 C 16,1 C 16,7 C 92 % 2 lf 57 cb 200 cb 107 cb 49 cb 1009,9 hPa 0,0 l/m 1,6 km/h (1 Bft) W 269 0 min 0,000 mm 0,0 UV-I 0 W/m 11,9 C 13,2 C 8,0 km/h (2 Bft)
01.08.2021 02:16 13,2 C 11,1 C 15,6 C 16,1 C 16,7 C 92 % 1 lf 57 cb 200 cb 107 cb 49 cb 1009,9 hPa 0,0 l/m 1,3 km/h (1 Bft) W 268 0 min 0,000 mm 0,0 UV-I 0 W/m 11,9 C 13,2 C 6,4 km/h (2 Bft)
01.08.2021 02:14 13,2 C 11,1 C 15,6 C 16,1 C 16,7 C 92 % 1 lf 57 cb 200 cb 107 cb 49 cb 1009,9 hPa 0,0 l/m 0,9 km/h (0 Bft) W 268 0 min 0,000 mm 0,0 UV-I 0 W/m 11,9 C 13,2 C 8,0 km/h (2 Bft)
01.08.2021 02:12 13,2 C 11,1 C 15,6 C 16,1 C 16,7 C 92 % 1 lf 57 cb 200 cb 108 cb 49 cb 1009,9 hPa 0,0 l/m 1,4 km/h (1 Bft) W 267 0 min 0,000 mm 0,0 UV-I 0 W/m 11,9 C 13,2 C 4,8 km/h (1 Bft)
01.08.2021 02:10 13,2 C 11,1 C 15,6 C 16,1 C 16,7 C 92 % 1 lf 57 cb 200 cb 108 cb 49 cb 1009,9 hPa 0,0 l/m 1,4 km/h (1 Bft) W 267 0 min 0,000 mm 0,0 UV-I 0 W/m 11,9 C 13,2 C 9,7 km/h (2 Bft)
01.08.2021 02:08 13,2 C 11,1 C 15,6 C 16,1 C 16,7 C 92 % 1 lf 57 cb 200 cb 108 cb 49 cb 1010,0 hPa 0,0 l/m 0,4 km/h (0 Bft) W 267 0 min 0,000 mm 0,0 UV-I 0 W/m 11,9 C 13,2 C 3,2 km/h (1 Bft)
01.08.2021 02:06 13,3 C 11,1 C 15,6 C 16,1 C 16,7 C 92 % 1 lf 57 cb 200 cb 108 cb 49 cb 1010,0 hPa 0,0 l/m 0,5 km/h (0 Bft) W 267 0 min 0,000 mm 0,0 UV-I 0 W/m 12,0 C 13,3 C 6,4 km/h (2 Bft)
01.08.2021 02:04 13,3 C 11,1 C 15,6 C 16,1 C 16,7 C 92 % 1 lf 57 cb 200 cb 108 cb 49 cb 1010,0 hPa 0,0 l/m 1,0 km/h (0 Bft) W 268 0 min 0,000 mm 0,0 UV-I 0 W/m 12,0 C 13,3 C 6,4 km/h (2 Bft)
01.08.2021 02:02 13,3 C 11,1 C 15,6 C 16,1 C 16,7 C 92 % 1 lf 57 cb 200 cb 108 cb 49 cb 1010,0 hPa 0,0 l/m 2,6 km/h (1 Bft) W 268 0 min 0,000 mm 0,0 UV-I 0 W/m 12,0 C 13,3 C 11,3 km/h (2 Bft)
01.08.2021 02:00 13,3 C 11,1 C 15,6 C 16,1 C 16,7 C 92 % 1 lf 57 cb 200 cb 108 cb 49 cb 1010,0 hPa 0,0 l/m 0,5 km/h (0 Bft) W 269 0 min 0,000 mm 0,0 UV-I 0 W/m 12,0 C 13,3 C 6,4 km/h (2 Bft)
01.08.2021 01:58 13,4 C 11,7 C 15,6 C 16,1 C 16,7 C 92 % 1 lf 58 cb 200 cb 108 cb 49 cb 1010,0 hPa 0,0 l/m 2,3 km/h (1 Bft) W 269 0 min 0,000 mm 0,0 UV-I 0 W/m 12,1 C 13,4 C 8,0 km/h (2 Bft)
01.08.2021 01:56 13,4 C 11,7 C 15,6 C 16,1 C 16,7 C 92 % 0 lf 58 cb 200 cb 108 cb 49 cb 1010,0 hPa 0,0 l/m 3,3 km/h (1 Bft) W 269 0 min 0,000 mm 0,0 UV-I 0 W/m 12,1 C 13,4 C 11,3 km/h (2 Bft)
01.08.2021 01:54 13,4 C 11,7 C 15,6 C 16,1 C 16,7 C 92 % 0 lf 58 cb 200 cb 108 cb 49 cb 1010,1 hPa 0,0 l/m 4,0 km/h (1 Bft) W 265 0 min 0,000 mm 0,0 UV-I 0 W/m 12,1 C 13,4 C 9,7 km/h (2 Bft)
01.08.2021 01:52 13,4 C 11,7 C 15,6 C 16,1 C 16,7 C 92 % 0 lf 58 cb 200 cb 108 cb 49 cb 1010,1 hPa 0,0 l/m 3,2 km/h (1 Bft) W 268 0 min 0,000 mm 0,0 UV-I 0 W/m 12,1 C 13,4 C 11,3 km/h (2 Bft)
01.08.2021 01:50 13,4 C 11,7 C 15,6 C 16,1 C 16,7 C 92 % 0 lf 58 cb 200 cb 108 cb 49 cb 1010,1 hPa 0,0 l/m 2,5 km/h (1 Bft) W 270 0 min 0,000 mm 0,0 UV-I 0 W/m 12,1 C 13,4 C 6,4 km/h (2 Bft)
01.08.2021 01:48 13,4 C 11,7 C 16,1 C 16,1 C 16,7 C 92 % 0 lf 58 cb 200 cb 108 cb 49 cb 1010,2 hPa 0,0 l/m 3,0 km/h (1 Bft) W 269 0 min 0,000 mm 0,0 UV-I 0 W/m 12,1 C 13,4 C 9,7 km/h (2 Bft)
01.08.2021 01:46 13,4 C 11,7 C 16,1 C 16,1 C 16,7 C 92 % 0 lf 58 cb 200 cb 108 cb 49 cb 1010,2 hPa 0,0 l/m 3,7 km/h (1 Bft) W 269 0 min 0,000 mm 0,0 UV-I 0 W/m 12,1 C 13,4 C 11,3 km/h (2 Bft)
01.08.2021 01:44 13,4 C 12,2 C 16,1 C 16,1 C 16,7 C 93 % 0 lf 59 cb 200 cb 108 cb 49 cb 1010,3 hPa 0,0 l/m 2,0 km/h (1 Bft) W 262 0 min 0,000 mm 0,0 UV-I 0 W/m 12,3 C 13,4 C 8,0 km/h (2 Bft)
01.08.2021 01:42 13,4 C 12,2 C 16,1 C 16,1 C 16,7 C 93 % 0 lf 59 cb 200 cb 108 cb 49 cb 1010,3 hPa 0,0 l/m 3,0 km/h (1 Bft) W 261 0 min 0,000 mm 0,0 UV-I 0 W/m 12,3 C 13,4 C 11,3 km/h (2 Bft)
01.08.2021 01:40 13,5 C 12,2 C 16,1 C 16,1 C 16,7 C 93 % 0 lf 59 cb 200 cb 108 cb 49 cb 1010,3 hPa 0,0 l/m 5,7 km/h (1 Bft) W-SW 255 0 min 0,000 mm 0,0 UV-I 0 W/m 12,4 C 13,5 C 11,3 km/h (2 Bft)
01.08.2021 01:38 13,5 C 12,2 C 16,1 C 16,1 C 16,7 C 93 % 0 lf 59 cb 200 cb 108 cb 49 cb 1010,3 hPa 0,0 l/m 4,2 km/h (1 Bft) W 271 0 min 0,000 mm 0,0 UV-I 0 W/m 12,4 C 13,5 C 9,7 km/h (2 Bft)
01.08.2021 01:36 13,5 C 12,2 C 16,1 C 16,1 C 16,7 C 93 % 0 lf 59 cb 200 cb 108 cb 49 cb 1010,3 hPa 0,0 l/m 4,5 km/h (1 Bft) W 273 0 min 0,000 mm 0,0 UV-I 0 W/m 12,4 C 13,5 C 14,5 km/h (3 Bft)
01.08.2021 01:34 13,5 C 12,2 C 16,1 C 16,1 C 16,7 C 93 % 0 lf 59 cb 200 cb 108 cb 49 cb 1010,3 hPa 0,0 l/m 0,4 km/h (0 Bft) W 276 0 min 0,000 mm 0,0 UV-I 0 W/m 12,4 C 13,5 C 3,2 km/h (1 Bft)
01.08.2021 01:33 13,5 C 12,2 C 16,1 C 16,1 C 16,7 C 93 % 1 lf 59 cb 200 cb 108 cb 49 cb 1010,3 hPa 0,0 l/m 1,2 km/h (1 Bft) W 276 0 min 0,000 mm 0,0 UV-I 0 W/m 12,4 C 13,5 C 6,4 km/h (2 Bft)
01.08.2021 01:32 13,5 C 12,2 C 16,1 C 16,1 C 16,7 C 93 % 1 lf 58 cb 200 cb 108 cb 49 cb 1010,3 hPa 0,0 l/m 3,4 km/h (1 Bft) W 276 0 min 0,000 mm 0,0 UV-I 0 W/m 12,4 C 13,5 C 11,3 km/h (2 Bft)
01.08.2021 01:30 13,5 C 12,2 C 16,1 C 16,1 C 16,7 C 93 % 1 lf 59 cb 200 cb 108 cb 49 cb 1010,4 hPa 0,0 l/m 1,8 km/h (1 Bft) W 274 0 min 0,000 mm 0,0 UV-I 0 W/m 12,4 C 13,5 C 8,0 km/h (2 Bft)
01.08.2021 01:28 13,5 C 12,2 C 16,1 C 16,1 C 16,7 C 94 % 1 lf 59 cb 200 cb 108 cb 49 cb 1010,3 hPa 0,0 l/m 4,0 km/h (1 Bft) W 275 0 min 0,000 mm 0,0 UV-I 0 W/m 12,6 C 13,5 C 8,0 km/h (2 Bft)
01.08.2021 01:26 13,6 C 12,8 C 16,1 C 16,7 C 16,7 C 94 % 1 lf 59 cb 200 cb 109 cb 49 cb 1010,3 hPa 0,0 l/m 3,3 km/h (1 Bft) W 277 0 min 0,000 mm 0,0 UV-I 0 W/m 12,7 C 13,6 C 11,3 km/h (2 Bft)
01.08.2021 01:24 13,6 C 12,8 C 16,1 C 16,7 C 16,7 C 94 % 1 lf 59 cb 200 cb 110 cb 49 cb 1010,3 hPa 0,0 l/m 3,5 km/h (1 Bft) W 274 0 min 0,000 mm 0,0 UV-I 0 W/m 12,7 C 13,6 C 11,3 km/h (2 Bft)
01.08.2021 01:22 13,5 C 12,8 C 16,1 C 16,7 C 16,7 C 94 % 1 lf 59 cb 200 cb 110 cb 49 cb 1010,3 hPa 0,0 l/m 1,9 km/h (1 Bft) W 273 0 min 0,000 mm 0,0 UV-I 0 W/m 12,6 C 13,5 C 8,0 km/h (2 Bft)
01.08.2021 01:20 13,5 C 12,8 C 16,1 C 16,7 C 16,7 C 94 % 1 lf 59 cb 200 cb 110 cb 49 cb 1010,3 hPa 0,0 l/m 3,3 km/h (1 Bft) W 274 0 min 0,000 mm 0,0 UV-I 0 W/m 12,6 C 13,5 C 9,7 km/h (2 Bft)
01.08.2021 01:18 13,5 C 12,8 C 16,1 C 16,7 C 16,7 C 94 % 2 lf 59 cb 200 cb 110 cb 49 cb 1010,4 hPa 0,0 l/m 2,3 km/h (1 Bft) W 273 0 min 0,000 mm 0,0 UV-I 0 W/m 12,6 C 13,5 C 11,3 km/h (2 Bft)
01.08.2021 01:16 13,4 C 12,8 C 16,1 C 16,7 C 16,7 C 94 % 2 lf 59 cb 200 cb 110 cb 49 cb 1010,3 hPa 0,0 l/m 1,6 km/h (1 Bft) W 259 0 min 0,000 mm 0,0 UV-I 0 W/m 12,5 C 13,4 C 6,4 km/h (2 Bft)
01.08.2021 01:14 13,4 C 12,8 C 16,1 C 16,7 C 16,7 C 94 % 3 lf 59 cb 200 cb 110 cb 49 cb 1010,4 hPa 0,0 l/m 5,4 km/h (1 Bft) W-SW 258 0 min 0,000 mm 0,0 UV-I 0 W/m 12,5 C 13,4 C 9,7 km/h (2 Bft)
01.08.2021 01:13 13,4 C 12,2 C 16,1 C 16,7 C 16,7 C 94 % 3 lf 59 cb 200 cb 110 cb 49 cb 1010,4 hPa 0,0 l/m 3,6 km/h (1 Bft) W 264 0 min 0,000 mm 0,0 UV-I 0 W/m 12,5 C 13,4 C 9,7 km/h (2 Bft)
01.08.2021 01:12 13,4 C 12,2 C 16,1 C 16,7 C 16,7 C 94 % 3 lf 59 cb 200 cb 110 cb 49 cb 1010,5 hPa 0,0 l/m 3,3 km/h (1 Bft) W 267 0 min 0,000 mm 0,0 UV-I 0 W/m 12,5 C 13,4 C 9,7 km/h (2 Bft)
01.08.2021 01:10 13,4 C 12,2 C 16,1 C 16,7 C 16,7 C 94 % 3 lf 59 cb 200 cb 110 cb 49 cb 1010,4 hPa 0,0 l/m 3,3 km/h (1 Bft) W 264 0 min 0,000 mm 0,0 UV-I 0 W/m 12,5 C 13,4 C 11,3 km/h (2 Bft)
01.08.2021 01:08 13,4 C 12,2 C 16,1 C 16,7 C 16,7 C 94 % 4 lf 59 cb 200 cb 110 cb 49 cb 1010,4 hPa 0,0 l/m 2,7 km/h (1 Bft) W 259 0 min 0,000 mm 0,0 UV-I 0 W/m 12,5 C 13,4 C 9,7 km/h (2 Bft)
01.08.2021 01:06 13,3 C 11,7 C 16,1 C 16,7 C 16,7 C 94 % 4 lf 58 cb 200 cb 110 cb 49 cb 1010,4 hPa 0,0 l/m 2,4 km/h (1 Bft) W 262 0 min 0,000 mm 0,0 UV-I 0 W/m 12,4 C 13,3 C 14,5 km/h (3 Bft)
01.08.2021 01:04 13,3 C 11,7 C 16,1 C 16,7 C 16,7 C 93 % 4 lf 58 cb 200 cb 110 cb 49 cb 1010,4 hPa 0,0 l/m 3,0 km/h (1 Bft) W 262 0 min 0,000 mm 0,0 UV-I 0 W/m 12,2 C 13,3 C 11,3 km/h (2 Bft)
01.08.2021 01:02 13,3 C 11,7 C 16,1 C 16,7 C 16,7 C 93 % 4 lf 59 cb 200 cb 110 cb 49 cb 1010,4 hPa 0,0 l/m 0,9 km/h (0 Bft) W-SW 257 0 min 0,000 mm 0,0 UV-I 0 W/m 12,2 C 13,3 C 6,4 km/h (2 Bft)
01.08.2021 01:00 13,3 C 11,1 C 16,1 C 16,7 C 16,7 C 93 % 4 lf 58 cb 200 cb 110 cb 49 cb 1010,4 hPa 0,0 l/m 5,7 km/h (1 Bft) W-SW 257 0 min 0,000 mm 0,0 UV-I 0 W/m 12,2 C 13,3 C 9,7 km/h (2 Bft)
01.08.2021 00:58 13,3 C 11,1 C 16,1 C 16,7 C 16,7 C 93 % 4 lf 58 cb 200 cb 110 cb 49 cb 1010,4 hPa 0,0 l/m 1,8 km/h (1 Bft) W 261 0 min 0,000 mm 0,0 UV-I 0 W/m 12,2 C 13,3 C 8,0 km/h (2 Bft)
01.08.2021 00:56 13,3 C 11,1 C 16,1 C 16,7 C 16,7 C 93 % 4 lf 58 cb 200 cb 110 cb 49 cb 1010,3 hPa 0,0 l/m 1,3 km/h (1 Bft) W 259 0 min 0,000 mm 0,0 UV-I 0 W/m 12,2 C 13,3 C 8,0 km/h (2 Bft)
01.08.2021 00:54 13,3 C 11,1 C 16,1 C 16,7 C 16,7 C 93 % 4 lf 58 cb 200 cb 110 cb 49 cb 1010,3 hPa 0,0 l/m 1,7 km/h (1 Bft) W 261 0 min 0,000 mm 0,0 UV-I 0 W/m 12,2 C 13,3 C 6,4 km/h (2 Bft)
01.08.2021 00:52 13,3 C 11,1 C 16,1 C 16,7 C 16,7 C 93 % 4 lf 58 cb 200 cb 110 cb 49 cb 1010,3 hPa 0,0 l/m 3,6 km/h (1 Bft) W 263 0 min 0,000 mm 0,0 UV-I 0 W/m 12,2 C 13,3 C 11,3 km/h (2 Bft)
01.08.2021 00:50 13,4 C 11,1 C 16,1 C 16,7 C 16,7 C 92 % 4 lf 58 cb 200 cb 110 cb 49 cb 1010,3 hPa 0,0 l/m 1,1 km/h (1 Bft) W 261 0 min 0,000 mm 0,0 UV-I 0 W/m 12,1 C 13,4 C 8,0 km/h (2 Bft)
01.08.2021 00:48 13,4 C 11,1 C 16,1 C 16,7 C 16,7 C 92 % 3 lf 58 cb 200 cb 110 cb 49 cb 1010,2 hPa 0,0 l/m 1,3 km/h (1 Bft) W 260 0 min 0,000 mm 0,0 UV-I 0 W/m 12,1 C 13,4 C 9,7 km/h (2 Bft)
01.08.2021 00:46 13,4 C 11,1 C 16,1 C 16,7 C 16,7 C 92 % 3 lf 58 cb 200 cb 110 cb 49 cb 1010,3 hPa 0,0 l/m 1,4 km/h (1 Bft) W 260 0 min 0,000 mm 0,0 UV-I 0 W/m 12,1 C 13,4 C 6,4 km/h (2 Bft)
01.08.2021 00:44 13,5 C 11,1 C 16,1 C 16,7 C 16,7 C 92 % 3 lf 58 cb 200 cb 110 cb 49 cb 1010,3 hPa 0,0 l/m 0,6 km/h (0 Bft) W 260 0 min 0,000 mm 0,0 UV-I 0 W/m 12,2 C 13,5 C 4,8 km/h (1 Bft)
01.08.2021 00:42 13,6 C 11,1 C 16,1 C 16,7 C 16,7 C 92 % 3 lf 58 cb 200 cb 110 cb 49 cb 1010,2 hPa 0,0 l/m 1,1 km/h (1 Bft) W 260 0 min 0,000 mm 0,0 UV-I 0 W/m 12,3 C 13,6 C 6,4 km/h (2 Bft)
01.08.2021 00:40 13,6 C 11,7 C 16,1 C 16,7 C 16,7 C 92 % 3 lf 59 cb 200 cb 110 cb 49 cb 1010,2 hPa 0,0 l/m 0,9 km/h (0 Bft) W 260 0 min 0,000 mm 0,0 UV-I 0 W/m 12,3 C 13,6 C 6,4 km/h (2 Bft)
01.08.2021 00:38 13,7 C 11,7 C 16,1 C 16,7 C 16,7 C 92 % 3 lf 59 cb 200 cb 110 cb 49 cb 1010,3 hPa 0,0 l/m 0,0 km/h (0 Bft) W 260 0 min 0,000 mm 0,0 UV-I 0 W/m 12,4 C 13,7 C 1,6 km/h (1 Bft)
01.08.2021 00:36 13,7 C 11,7 C 16,1 C 16,7 C 16,7 C 92 % 2 lf 59 cb 200 cb 110 cb 49 cb 1010,2 hPa 0,0 l/m 0,8 km/h (0 Bft) W 260 0 min 0,000 mm 0,0 UV-I 0 W/m 12,4 C 13,7 C 4,8 km/h (1 Bft)
01.08.2021 00:34 13,7 C 11,7 C 16,1 C 16,7 C 16,7 C 92 % 2 lf 59 cb 200 cb 110 cb 49 cb 1010,2 hPa 0,0 l/m 1,9 km/h (1 Bft) W 260 0 min 0,000 mm 0,0 UV-I 0 W/m 12,4 C 13,7 C 8,0 km/h (2 Bft)
01.08.2021 00:33 13,8 C 11,7 C 16,1 C 16,7 C 16,7 C 92 % 2 lf 59 cb 200 cb 110 cb 49 cb 1010,2 hPa 0,0 l/m 0,3 km/h (0 Bft) W 261 0 min 0,000 mm 0,0 UV-I 0 W/m 12,5 C 13,8 C 3,2 km/h (1 Bft)
01.08.2021 00:32 13,8 C 11,7 C 16,1 C 16,7 C 16,7 C 92 % 2 lf 59 cb 200 cb 110 cb 49 cb 1010,2 hPa 0,0 l/m 2,7 km/h (1 Bft) W 261 0 min 0,000 mm 0,0 UV-I 0 W/m 12,5 C 13,8 C 9,7 km/h (2 Bft)
01.08.2021 00:30 13,8 C 11,7 C 16,1 C 16,7 C 16,7 C 92 % 2 lf 59 cb 200 cb 110 cb 49 cb 1010,3 hPa 0,0 l/m 0,1 km/h (0 Bft) W 267 0 min 0,000 mm 0,0 UV-I 0 W/m 12,5 C 13,8 C 1,6 km/h (1 Bft)
01.08.2021 00:28 13,8 C 11,7 C 16,1 C 16,7 C 16,7 C 92 % 1 lf 59 cb 200 cb 110 cb 49 cb 1010,3 hPa 0,0 l/m 0,3 km/h (0 Bft) W 267 0 min 0,000 mm 0,0 UV-I 0 W/m 12,5 C 13,8 C 3,2 km/h (1 Bft)
01.08.2021 00:26 13,9 C 11,7 C 16,1 C 16,7 C 17,2 C 92 % 1 lf 59 cb 200 cb 110 cb 49 cb 1010,4 hPa 0,0 l/m 0,0 km/h (0 Bft) W 267 0 min 0,000 mm 0,0 UV-I 0 W/m 12,6 C 13,9 C 0,0 km/h (0 Bft)
01.08.2021 00:24 13,9 C 11,7 C 16,1 C 16,7 C 17,2 C 92 % 1 lf 59 cb 200 cb 110 cb 49 cb 1010,4 hPa 0,0 l/m 0,8 km/h (0 Bft) W 267 0 min 0,000 mm 0,0 UV-I 0 W/m 12,6 C 13,9 C 6,4 km/h (2 Bft)
01.08.2021 00:22 13,9 C 11,7 C 16,1 C 16,7 C 17,2 C 92 % 1 lf 59 cb 200 cb 110 cb 49 cb 1010,4 hPa 0,0 l/m 2,0 km/h (1 Bft) W 267 0 min 0,000 mm 0,0 UV-I 0 W/m 12,6 C 13,9 C 11,3 km/h (2 Bft)
01.08.2021 00:20 13,9 C 11,7 C 16,1 C 16,7 C 17,2 C 92 % 1 lf 59 cb 200 cb 110 cb 49 cb 1010,4 hPa 0,0 l/m 0,7 km/h (0 Bft) W 265 0 min 0,000 mm 0,0 UV-I 0 W/m 12,6 C 13,9 C 8,0 km/h (2 Bft)
01.08.2021 00:18 13,9 C 11,7 C 16,1 C 16,7 C 17,2 C 92 % 1 lf 59 cb 200 cb 110 cb 49 cb 1010,4 hPa 0,0 l/m 1,5 km/h (1 Bft) W 265 0 min 0,000 mm 0,0 UV-I 0 W/m 12,6 C 13,9 C 6,4 km/h (2 Bft)
01.08.2021 00:16 13,9 C 12,2 C 16,1 C 16,7 C 17,2 C 91 % 1 lf 59 cb 200 cb 110 cb 49 cb 1010,4 hPa 0,0 l/m 0,1 km/h (0 Bft) W 265 0 min 0,000 mm 0,0 UV-I 0 W/m 12,5 C 13,9 C 3,2 km/h (1 Bft)
01.08.2021 00:14 14,0 C 12,2 C 16,1 C 16,7 C 17,2 C 91 % 1 lf 59 cb 200 cb 110 cb 49 cb 1010,5 hPa 0,0 l/m 0,8 km/h (0 Bft) W 265 0 min 0,000 mm 0,0 UV-I 0 W/m 12,6 C 14,0 C 8,0 km/h (2 Bft)
01.08.2021 00:12 14,0 C 12,2 C 16,1 C 16,7 C 17,2 C 91 % 1 lf 59 cb 200 cb 110 cb 49 cb 1010,5 hPa 0,0 l/m 1,4 km/h (1 Bft) W 265 0 min 0,000 mm 0,0 UV-I 0 W/m 12,6 C 14,0 C 6,4 km/h (2 Bft)
01.08.2021 00:10 14,1 C 12,2 C 16,1 C 16,7 C 17,2 C 91 % 1 lf 59 cb 200 cb 110 cb 49 cb 1010,5 hPa 0,0 l/m 1,1 km/h (1 Bft) W 268 0 min 0,000 mm 0,0 UV-I 0 W/m 12,7 C 14,1 C 8,0 km/h (2 Bft)
01.08.2021 00:08 14,1 C 12,2 C 16,1 C 16,7 C 17,2 C 92 % 0 lf 59 cb 200 cb 110 cb 49 cb 1010,5 hPa 0,0 l/m 0,3 km/h (0 Bft) W 268 0 min 0,000 mm 0,0 UV-I 0 W/m 12,8 C 14,1 C 4,8 km/h (1 Bft)
01.08.2021 00:06 14,1 C 12,2 C 16,1 C 16,7 C 17,2 C 92 % 0 lf 59 cb 200 cb 110 cb 49 cb 1010,5 hPa 0,0 l/m 2,7 km/h (1 Bft) W 269 0 min 0,000 mm 0,0 UV-I 0 W/m 12,8 C 14,1 C 9,7 km/h (2 Bft)
01.08.2021 00:04 14,1 C 12,2 C 16,1 C 16,7 C 17,2 C 92 % 0 lf 59 cb 200 cb 110 cb 49 cb 1010,5 hPa 0,0 l/m 2,2 km/h (1 Bft) W 274 0 min 0,000 mm 0,0 UV-I 0 W/m 12,8 C 14,1 C 9,7 km/h (2 Bft)
01.08.2021 00:02 14,1 C 12,2 C 16,7 C 16,7 C 17,2 C 92 % 0 lf 59 cb 200 cb 110 cb 49 cb 1010,5 hPa 0,0 l/m 1,9 km/h (1 Bft) W 280 0 min 0,000 mm 0,0 UV-I 0 W/m 12,8 C 14,1 C 11,3 km/h (2 Bft)
01.08.2021 00:00 14,1 C 12,8 C 16,7 C 16,7 C 17,2 C 92 % 0 lf 60 cb 200 cb 110 cb 49 cb 1010,5 hPa 0,0 l/m 3,8 km/h (1 Bft) W 275 0 min 0,000 mm 0,0 UV-I 0 W/m 12,8 C 14,1 C 14,5 km/h (3 Bft)
_ Min-Zeit 06:52 05:20 07:06 07:04 06:14 14:54 00:00 05:20 00:00 10:46 00:00 07:58 - 00:26 - - - - - - 06:54 06:54 00:26
Minimum _ 11,8 C 10,6 C 14,4 C 15,0 C 15,6 C 76 % 0 lf 55 cb 200 cb 95 cb 49 cb 1009,3 hPa - 0,0 km/h (0 Bft) - - - - - - 11,0 C 11,8 C 0,0 km/h (0 Bft)
_ Max-Zeit 14:50 14:38 14:22 14:14 00:00 05:34 05:56 09:34 00:00 00:00 12:12 11:42 00:00 14:20 - - 07:32 14:00 14:12 13:40 14:50 14:50 14:20
Maximum _ 17,7 C 27,2 C 18,3 C 17,8 C 17,2 C 95 % 13 lf 65 cb 200 cb 110 cb 51 cb 1010,7 hPa 0,0 l/m 10,8 km/h
W-NW (2 Bft)
- - 2 min 0,229 mm 6,7 UV-I 1134 W/m 14,4 C 17,7 C 24,1 km/h
W-NW (4 Bft)
Durchschnitt _ 14,1 C 14,9 C 15,7 C 16,0 C 16,1 C 89 % 2 lf 57 cb 200 cb 101 cb 50 cb 1010,0 hPa #0,0 l/m 2,8 km/h (1 Bft) W - #2:00 h #0,991 mm 2,1 UV-I 242 W/m 12,2 C 14,0 C 9,6 km/h (2 Bft)